HB4LO-13 Weather Reports


Display with metric or nautical units.
time (UTC)temp
F
wind
direction
speed
MPH
gust
MPH
rain 1hr
in
rain 24hr
in
rain mn
in
humidity
%
barometer
mb
20260506175506 56 183 1.0 4.0 0.00 0.25 0.25 60
20260506175406 56 178 1.0 4.0 0.00 0.25 0.25 60
20260506175306 56 198 1.0 4.0 0.00 0.25 0.25 60
20260506175206 56 172 1.0 4.0 0.00 0.25 0.25 60
20260506175106 56 172 1.0 4.0 0.00 0.25 0.25 60
20260506175006 56 183 1.0 4.0 0.00 0.25 0.25 59
20260506174906 56 186 1.0 2.0 0.00 0.25 0.25 59
20260506174806 57 171 1.0 2.0 0.00 0.25 0.25 58
20260506174706 57 185 2.0 2.0 0.00 0.25 0.25 58
20260506174606 57 186 0.0 4.0 0.00 0.25 0.25 58
20260506174506 57 176 1.0 4.0 0.00 0.25 0.25 58
20260506174406 57 182 0.0 4.0 0.00 0.25 0.25 58
20260506174306 57 185 0.0 4.0 0.00 0.25 0.25 58
20260506174206 57 181 1.0 4.0 0.00 0.25 0.25 58
20260506174106 57 174 1.0 4.0 0.00 0.25 0.25 58
20260506174006 57 188 1.0 4.0 0.00 0.25 0.25 57
20260506173906 57 185 1.0 4.0 0.00 0.25 0.25 57
20260506173806 57 174 0.0 4.0 0.00 0.25 0.25 57
20260506173706 57 186 1.0 5.0 0.00 0.25 0.25 57
20260506173606 57 175 1.0 5.0 0.00 0.25 0.25 57
20260506173506 57 178 1.0 5.0 0.00 0.25 0.25 57
20260506173406 57 183 3.0 5.0 0.00 0.25 0.25 57
20260506173306 57 169 2.0 5.0 0.00 0.25 0.25 57
20260506173206 57 183 0.0 7.0 0.00 0.25 0.25 57
20260506173106 57 184 2.0 7.0 0.00 0.25 0.25 57
20260506173006 57 184 2.0 7.0 0.00 0.25 0.25 57
20260506172906 57 183 1.0 7.0 0.00 0.25 0.25 57
20260506172806 57 185 2.0 7.0 0.00 0.25 0.25 56
20260506172706 57 262 1.0 7.0 0.00 0.25 0.25 56
20260506172606 57 183 4.0 7.0 0.00 0.25 0.25 56
20260506172506 57 187 2.0 5.0 0.00 0.25 0.25 56
20260506172406 57 185 3.0 5.0 0.00 0.25 0.25 57
20260506172307 57 173 3.0 5.0 0.00 0.25 0.25 57
20260506172206 57 185 3.0 5.0 0.00 0.25 0.25 56
20260506172106 57 173 2.0 4.0 0.00 0.25 0.25 58
20260506172006 57 184 1.0 4.0 0.00 0.25 0.25 58
20260506171906 57 185 0.0 4.0 0.00 0.25 0.25 58
20260506171806 57 185 0.0 4.0 0.00 0.25 0.25 58
20260506171706 57 181 1.0 4.0 0.00 0.25 0.25 58
20260506171606 57 186 2.0 5.0 0.00 0.25 0.25 58
20260506171506 57 176 1.0 5.0 0.00 0.25 0.25 58
20260506171406 57 178 2.0 5.0 0.00 0.25 0.25 57
20260506171306 57 184 2.0 5.0 0.00 0.25 0.25 57
20260506171206 57 178 3.0 5.0 0.00 0.25 0.25 57
20260506171106 57 175 2.0 5.0 0.00 0.25 0.25 57
20260506171006 57 181 0.0 5.0 0.00 0.25 0.25 57
20260506170906 57 185 2.0 5.0 0.00 0.25 0.25 57
20260506170806 57 189 3.0 7.0 0.00 0.25 0.25 56
20260506170706 57 171 3.0 7.0 0.00 0.25 0.25 56
20260506170606 57 185 2.0 7.0 0.00 0.25 0.25 57
20260506170506 57 191 2.0 7.0 0.00 0.25 0.25 56
20260506170406 57 184 4.0 7.0 0.00 0.25 0.25 56
20260506170306 57 186 3.0 7.0 0.00 0.25 0.25 56
20260506170206 57 185 3.0 5.0 0.00 0.25 0.25 56
20260506170106 57 183 2.0 5.0 0.00 0.25 0.25 56
20260506170006 57 183 3.0 5.0 0.00 0.25 0.25 56
20260506165906 57 182 2.0 4.0 0.00 0.25 0.25 56
20260506165806 57 187 2.0 5.0 0.00 0.25 0.25 55
20260506165706 57 185 2.0 5.0 0.00 0.25 0.25 56
20260506165606 57 165 2.0 5.0 0.00 0.25 0.25 56
20260506165506 57 163 2.0 5.0 0.00 0.25 0.25 56
20260506165406 57 173 3.0 5.0 0.00 0.25 0.25 56
20260506165306 57 185 3.0 5.0 0.00 0.25 0.25 55
20260506165206 57 167 2.0 7.0 0.00 0.25 0.25 56
20260506165106 57 178 3.0 7.0 0.00 0.25 0.25 56
20260506165006 57 184 2.0 7.0 0.00 0.25 0.25 55
20260506164906 57 176 3.0 7.0 0.00 0.25 0.25 55
20260506164806 57 182 5.0 8.0 0.00 0.25 0.25 55
20260506164706 57 174 3.0 8.0 0.00 0.25 0.25 55
20260506164606 57 180 3.0 8.0 0.00 0.25 0.25 55
20260506164506 57 172 2.0 8.0 0.00 0.25 0.25 55
20260506164406 57 185 4.0 8.0 0.00 0.25 0.25 55
20260506164306 57 185 3.0 7.0 0.00 0.25 0.25 55
20260506164206 57 178 3.0 7.0 0.00 0.25 0.25 55
20260506164106 57 171 4.0 7.0 0.00 0.25 0.25 54
20260506164006 57 184 5.0 7.0 0.00 0.25 0.25 55
20260506163906 57 182 4.0 7.0 0.00 0.25 0.25 54
20260506163806 58 166 4.0 7.0 0.00 0.25 0.25 54
20260506163706 58 164 3.0 5.0 0.00 0.25 0.25 53
20260506163606 58 180 2.0 5.0 0.00 0.25 0.25 55
20260506163506 58 183 1.0 4.0 0.00 0.25 0.25 55
20260506163406 58 175 2.0 4.0 0.00 0.25 0.25 55
20260506163306 58 172 2.0 4.0 0.00 0.25 0.25 56
20260506163206 58 184 2.0 5.0 0.00 0.25 0.25 55
20260506163106 58 177 2.0 5.0 0.00 0.25 0.25 54
20260506163006 58 169 2.0 5.0 0.00 0.25 0.25 55
20260506162906 58 146 2.0 5.0 0.00 0.25 0.25 55
20260506162806 58 175 3.0 5.0 0.00 0.25 0.25 54
20260506162706 58 178 3.0 5.0 0.00 0.25 0.25 53
20260506162606 58 169 2.0 4.0 0.00 0.25 0.25 53
20260506162506 58 184 1.0 4.0 0.00 0.25 0.25 53
20260506162406 58 187 2.0 4.0 0.00 0.25 0.25 53
20260506162307 59 187 2.0 4.0 0.00 0.25 0.25 53
20260506162206 58 182 1.0 7.0 0.00 0.25 0.25 53
20260506162106 59 175 2.0 8.0 0.00 0.25 0.25 53
20260506162006 58 175 2.0 8.0 0.00 0.25 0.25 53
20260506161906 58 189 2.0 8.0 0.00 0.25 0.25 53
20260506161806 58 172 3.0 8.0 0.00 0.25 0.25 53
20260506161706 58 181 4.0 8.0 0.00 0.25 0.25 54
20260506161606 58 171 3.0 7.0 0.00 0.25 0.25 53
20260506161506 58 184 4.0 8.0 0.00 0.25 0.25 53
20260506161406 58 182 4.0 8.0 0.00 0.25 0.25 52
20260506161306 58 167 4.0 11.0 0.00 0.25 0.25 52
20260506161206 58 167 4.0 11.0 0.00 0.25 0.25 53
20260506161106 58 166 5.0 11.0 0.00 0.25 0.25 52
20260506161006 58 175 6.0 11.0 0.00 0.25 0.25 52
20260506160906 58 171 7.0 11.0 0.00 0.25 0.25 52
20260506160806 58 181 8.0 11.0 0.00 0.25 0.25 52
20260506160706 58 186 7.0 10.0 0.00 0.25 0.25 51
20260506160606 58 174 4.0 8.0 0.00 0.25 0.25 53
20260506160506 58 186 4.0 8.0 0.00 0.25 0.25 54
20260506160406 58 152 5.0 13.0 0.00 0.25 0.25 53
20260506160306 58 185 3.0 13.0 0.00 0.25 0.25 54
20260506160206 58 173 4.0 13.0 0.00 0.25 0.25 54
20260506160106 57 170 5.0 13.0 0.00 0.25 0.25 54
20260506160006 57 185 7.0 13.0 0.00 0.25 0.25 55
20260506155906 57 172 5.0 11.0 0.00 0.25 0.25 55
20260506155806 57 153 5.0 11.0 0.00 0.25 0.25 55
20260506155706 57 176 4.0 11.0 0.00 0.25 0.25 55
20260506155606 57 172 0.0 7.0 0.00 0.25 0.25 55
20260506155506 57 170 2.0 8.0 0.00 0.25 0.25 55
20260506155406 57 183 4.0 8.0 0.00 0.25 0.25 55
20260506155306 57 179 4.0 8.0 0.00 0.25 0.25 55
20260506155206 57 180 3.0 8.0 0.00 0.25 0.25 55
20260506155106 57 171 5.0 10.0 0.00 0.25 0.25 54
20260506155006 57 177 3.0 10.0 0.00 0.25 0.25 55
20260506154906 57 170 4.0 10.0 0.00 0.25 0.25 55
20260506154806 57 186 5.0 10.0 0.00 0.25 0.25 54
20260506154706 57 180 6.0 10.0 0.00 0.25 0.25 53
20260506154606 57 164 5.0 8.0 0.00 0.25 0.25 54
20260506154506 58 168 5.0 8.0 0.00 0.25 0.25 54
20260506154406 57 175 3.0 10.0 0.00 0.25 0.25 55
20260506154306 57 178 4.0 10.0 0.00 0.25 0.25 54
20260506154206 57 181 5.0 10.0 0.00 0.25 0.25 54
20260506154106 57 173 4.0 10.0 0.00 0.25 0.25 54
20260506154006 57 173 5.0 10.0 0.00 0.25 0.25 53
20260506153906 57 179 5.0 10.0 0.00 0.25 0.25 55
20260506153806 57 184 5.0 10.0 0.00 0.25 0.25 54
20260506153706 58 171 5.0 10.0 0.00 0.25 0.25 53
20260506153606 58 184 4.0 10.0 0.00 0.25 0.25 54
20260506153506 58 182 1.0 7.0 0.00 0.25 0.25 56
20260506153406 57 174 2.0 7.0 0.00 0.25 0.25 55
20260506153306 57 175 2.0 7.0 0.00 0.25 0.25 55
20260506153206 57 186 3.0 7.0 0.00 0.25 0.25 55
20260506153106 57 173 3.0 7.0 0.00 0.25 0.25 54
20260506153006 58 181 5.0 8.0 0.00 0.25 0.25 53
20260506152906 58 177 2.0 10.0 0.00 0.25 0.25 54
20260506152806 58 133 2.0 10.0 0.00 0.25 0.25 54
20260506152706 57 185 4.0 10.0 0.00 0.25 0.25 54
20260506152606 57 166 5.0 10.0 0.00 0.25 0.25 55
20260506152506 57 185 4.0 10.0 0.00 0.25 0.25 56
20260506152406 57 200 2.0 7.0 0.00 0.25 0.25 57
20260506152306 57 186 3.0 7.0 0.00 0.25 0.25 57
20260506152206 57 186 3.0 7.0 0.00 0.25 0.25 57
20260506152106 57 181 5.0 8.0 0.00 0.25 0.25 56
20260506152006 57 173 2.0 8.0 0.00 0.25 0.25 57
20260506151906 57 183 2.0 8.0 0.00 0.25 0.25 56
20260506151806 57 166 2.0 8.0 0.00 0.25 0.25 56
20260506151706 57 178 4.0 8.0 0.00 0.25 0.25 56
20260506151606 57 185 5.0 8.0 0.00 0.25 0.25 55
20260506151506 57 184 4.0 8.0 0.00 0.25 0.25 55
20260506151406 57 186 4.0 8.0 0.00 0.25 0.25 57
20260506151306 57 141 2.0 8.0 0.00 0.25 0.25 57
20260506151206 57 177 4.0 8.0 0.00 0.25 0.25 56
20260506151106 57 184 5.0 8.0 0.00 0.25 0.25 56
20260506151006 57 186 4.0 7.0 0.00 0.25 0.25 56
20260506150906 57 177 3.0 7.0 0.00 0.25 0.25 58
20260506150806 57 160 2.0 8.0 0.00 0.25 0.25 57
20260506150706 57 187 4.0 8.0 0.00 0.25 0.25 57
20260506150606 57 185 3.0 8.0 0.00 0.25 0.25 57
20260506150506 57 165 4.0 8.0 0.00 0.25 0.25 58
20260506150406 57 174 5.0 8.0 0.00 0.25 0.25 57
20260506150306 57 183 5.0 8.0 0.00 0.25 0.25 56
20260506150206 57 172 2.0 8.0 0.00 0.25 0.25 57
20260506150106 57 164 2.0 8.0 0.00 0.25 0.25 58
20260506150006 57 172 1.0 8.0 0.00 0.25 0.25 58
20260506145906 57 185 3.0 8.0 0.00 0.25 0.25 59
20260506145806 57 186 5.0 8.0 0.00 0.25 0.25 57
20260506145706 57 181 3.0 5.0 0.00 0.25 0.25 59
20260506145606 57 172 2.0 4.0 0.00 0.25 0.25 60
20260506145506 57 173 2.0 4.0 0.00 0.25 0.25 60
20260506145406 57 182 1.0 4.0 0.00 0.25 0.25 62
20260506145306 57 184 1.0 5.0 0.00 0.25 0.25 62
20260506145206 57 187 3.0 5.0 0.00 0.25 0.25 62
20260506145106 56 185 1.0 5.0 0.00 0.25 0.25 61
20260506145006 56 194 2.0 7.0 0.00 0.25 0.25 61
20260506144906 56 172 3.0 7.0 0.00 0.25 0.25 61
20260506144806 56 186 2.0 7.0 0.00 0.25 0.25 61
20260506144706 56 176 3.0 7.0 0.00 0.25 0.25 61
20260506144606 56 184 3.0 7.0 0.00 0.25 0.25 61
20260506144506 56 174 4.0 8.0 0.00 0.25 0.25 61
20260506144406 56 184 3.0 8.0 0.00 0.25 0.25 61
20260506144306 56 172 3.0 8.0 0.00 0.25 0.25 61
20260506144206 56 185 3.0 8.0 0.00 0.25 0.25 62
20260506144106 55 182 5.0 8.0 0.00 0.25 0.25 61
20260506144006 55 186 5.0 8.0 0.00 0.25 0.25 61
20260506143906 56 183 4.0 7.0 0.00 0.25 0.25 61
20260506143806 55 163 3.0 8.0 0.00 0.25 0.25 62
20260506143706 55 171 3.0 8.0 0.00 0.25 0.25 62
20260506143606 55 185 4.0 8.0 0.00 0.25 0.25 62
20260506143506 55 173 3.0 8.0 0.00 0.25 0.25 64
20260506143406 55 186 5.0 8.0 0.00 0.25 0.25 65
20260506143306 55 177 4.0 7.0 0.00 0.25 0.25 64
20260506143206 55 140 2.0 7.0 0.00 0.25 0.25 65
20260506143106 55 177 3.0 7.0 0.00 0.25 0.25 66
20260506143006 55 186 4.0 7.0 0.00 0.25 0.25 65
20260506142906 55 183 4.0 7.0 0.00 0.25 0.25 65
20260506142806 55 182 2.0 7.0 0.00 0.25 0.25 65
20260506142706 55 185 3.0 7.0 0.00 0.25 0.25 65
20260506142606 55 173 4.0 7.0 0.00 0.25 0.25 65
20260506142506 55 181 4.0 7.0 0.00 0.25 0.25 65
20260506142406 55 186 3.0 7.0 0.00 0.25 0.25 66
20260506142306 55 183 2.0 7.0 0.00 0.25 0.25 66
20260506142206 54 183 4.0 7.0 0.00 0.25 0.25 67
20260506142106 55 185 4.0 7.0 0.00 0.25 0.25 66
20260506142006 55 181 4.0 7.0 0.00 0.25 0.25 66
20260506141906 55 182 3.0 7.0 0.00 0.25 0.25 66
20260506141806 55 185 3.0 7.0 0.00 0.25 0.25 66
20260506141706 55 173 1.0 7.0 0.00 0.25 0.25 66
20260506141606 55 185 3.0 7.0 0.00 0.25 0.25 66
20260506141506 54 181 4.0 7.0 0.00 0.25 0.25 66
20260506141406 54 183 3.0 5.0 0.00 0.25 0.25 66
20260506141306 54 187 4.0 5.0 0.00 0.25 0.25 66
20260506141206 54 170 2.0 5.0 0.00 0.25 0.25 67
20260506141106 54 186 3.0 5.0 0.00 0.25 0.25 67
20260506141006 54 177 2.0 5.0 0.00 0.25 0.25 66
20260506140906 54 172 3.0 7.0 0.00 0.25 0.25 66
20260506140806 54 186 3.0 7.0 0.00 0.25 0.25 66
20260506140706 54 181 2.0 7.0 0.00 0.25 0.25 66
20260506140606 54 171 3.0 7.0 0.00 0.25 0.25 66
20260506140506 54 186 4.0 7.0 0.00 0.25 0.25 66
20260506140406 54 187 3.0 7.0 0.00 0.25 0.25 67
20260506140306 54 168 3.0 5.0 0.00 0.25 0.25 67
20260506140206 54 185 2.0 5.0 0.00 0.25 0.25 67
20260506140106 54 168 1.0 4.0 0.00 0.25 0.25 69
20260506140006 54 188 2.0 7.0 0.00 0.25 0.25 69
20260506135906 54 186 1.0 7.0 0.00 0.25 0.25 70
20260506135806 54 187 1.0 7.0 0.00 0.25 0.25 70
20260506135706 54 186 2.0 7.0 0.00 0.25 0.25 70
20260506135606 54 181 4.0 7.0 0.00 0.25 0.25 70
20260506135506 54 177 2.0 7.0 0.00 0.25 0.25 70
20260506135406 54 172 1.0 7.0 0.00 0.25 0.25 70
20260506135306 54 177 2.0 7.0 0.00 0.25 0.25 70
20260506135206 54 185 4.0 7.0 0.00 0.25 0.25 70
20260506135106 53 166 2.0 7.0 0.00 0.25 0.25 70
20260506135006 53 168 2.0 8.0 0.00 0.25 0.25 70
20260506134906 53 176 3.0 8.0 0.00 0.25 0.25 70
20260506134806 54 186 4.0 8.0 0.00 0.25 0.25 69
20260506134706 54 189 3.0 8.0 0.00 0.25 0.25 70
20260506134606 54 166 5.0 8.0 0.00 0.25 0.25 70
20260506134506 54 187 2.0 8.0 0.00 0.25 0.25 71
20260506134406 54 186 3.0 5.0 0.00 0.25 0.25 71
20260506134306 54 186 3.0 5.0 0.00 0.25 0.25 70
20260506134206 54 176 3.0 7.0 0.00 0.25 0.25 70
20260506134106 54 171 2.0 8.0 0.00 0.25 0.25 70
20260506134006 54 169 2.0 8.0 0.00 0.25 0.25 71
20260506133906 54 174 3.0 8.0 0.00 0.25 0.25 71
20260506133806 54 183 3.0 8.0 0.00 0.25 0.25 71
20260506133706 53 173 4.0 8.0 0.00 0.25 0.25 71
20260506133606 54 185 2.0 8.0 0.00 0.25 0.25 71
20260506133506 53 193 2.0 8.0 0.00 0.25 0.25 71
20260506133406 53 184 3.0 8.0 0.00 0.25 0.25 70
20260506133306 53 178 3.0 8.0 0.00 0.25 0.25 69
20260506133206 53 205 5.0 8.0 0.00 0.25 0.25 70
20260506133106 53 183 5.0 8.0 0.00 0.25 0.25 69
20260506133006 54 186 6.0 8.0 0.00 0.25 0.25 69
20260506132906 54 170 3.0 7.0 0.00 0.25 0.25 71
20260506132806 54 147 2.0 5.0 0.00 0.25 0.25 73
20260506132706 54 183 2.0 5.0 0.00 0.25 0.25 74
20260506132606 54 176 2.0 4.0 0.00 0.25 0.25 74
20260506132506 54 185 2.0 5.0 0.00 0.25 0.25 73
20260506132406 54 169 2.0 5.0 0.00 0.25 0.25 72
20260506132307 54 188 2.0 5.0 0.00 0.25 0.25 73
20260506132206 55 182 3.0 5.0 0.00 0.25 0.25 71
20260506132106 55 186 2.0 5.0 0.00 0.25 0.25 71
20260506132006 55 187 1.0 4.0 0.00 0.25 0.25 70
20260506131906 55 187 1.0 5.0 0.00 0.25 0.25 69
20260506131806 55 185 1.0 5.0 0.00 0.25 0.25 69
20260506131706 55 186 2.0 5.0 0.00 0.25 0.25 68
20260506131606 55 184 1.0 5.0 0.00 0.25 0.25 67
20260506131506 55 185 3.0 5.0 0.00 0.25 0.25 67
20260506131406 55 163 2.0 4.0 0.00 0.25 0.25 67
20260506131306 55 169 2.0 4.0 0.00 0.25 0.25 68
20260506131206 55 186 1.0 4.0 0.00 0.25 0.25 67
20260506131106 55 191 2.0 5.0 0.00 0.25 0.25 67
20260506131006 55 187 1.0 7.0 0.00 0.25 0.25 68
20260506130906 55 172 1.0 8.0 0.00 0.25 0.25 67
20260506130806 55 187 1.0 8.0 0.00 0.25 0.25 69
20260506130706 55 165 2.0 8.0 0.00 0.25 0.25 68
20260506130606 55 173 5.0 8.0 0.00 0.25 0.25 66
20260506130506 55 185 5.0 8.0 0.00 0.25 0.25 66
20260506130406 55 185 4.0 7.0 0.00 0.25 0.25 67
20260506130306 55 182 2.0 4.0 0.00 0.25 0.25 67
20260506130206 55 171 2.0 4.0 0.00 0.25 0.25 68
20260506130106 55 170 1.0 4.0 0.00 0.25 0.25 68
20260506130006 55 170 1.0 4.0 0.00 0.25 0.25 69
20260506125906 55 187 1.0 4.0 0.00 0.25 0.25 68
20260506125806 55 178 1.0 4.0 0.00 0.25 0.25 67
20260506125706 55 170 1.0 4.0 0.00 0.25 0.25 67
20260506125606 55 173 0.0 4.0 0.00 0.25 0.25 67
20260506125506 55 171 1.0 4.0 0.00 0.25 0.25 67
20260506125406 55 165 0.0 4.0 0.00 0.25 0.25 66
20260506125306 55 187 1.0 5.0 0.00 0.25 0.25 66
20260506125206 55 174 1.0 5.0 0.00 0.25 0.25 67
20260506125106 55 168 0.0 5.0 0.00 0.25 0.25 67
20260506125006 55 166 2.0 5.0 0.02 0.25 0.25 67
20260506124906 55 181 1.0 5.0 0.02 0.25 0.25 67
20260506124806 55 185 1.0 4.0 0.02 0.25 0.25 67
20260506124706 55 186 1.0 5.0 0.02 0.25 0.25 66
20260506124606 55 170 1.0 5.0 0.02 0.25 0.25 68
20260506124506 55 98 0.0 5.0 0.02 0.25 0.25 68
20260506124406 55 147 1.0 5.0 0.02 0.25 0.25 67
20260506124306 55 169 2.0 5.0 0.02 0.25 0.25 67
20260506124206 55 165 2.0 4.0 0.02 0.25 0.25 66
20260506124106 55 181 2.0 4.0 0.02 0.25 0.25 65
20260506124006 55 141 1.0 4.0 0.02 0.25 0.25 66
20260506123906 55 176 1.0 4.0 0.02 0.25 0.25 65
20260506123806 55 160 1.0 4.0 0.02 0.25 0.25 65
20260506123706 55 169 0.0 4.0 0.02 0.25 0.25 66
20260506123606 55 164 1.0 5.0 0.02 0.25 0.25 66
20260506123506 55 183 2.0 5.0 0.02 0.25 0.25 66
20260506123406 55 170 1.0 5.0 0.02 0.25 0.25 66
20260506123306 55 186 2.0 5.0 0.02 0.25 0.25 66
20260506123206 55 169 2.0 5.0 0.03 0.25 0.25 67
20260506123106 55 185 2.0 4.0 0.03 0.25 0.25 68
20260506123006 55 170 1.0 4.0 0.03 0.25 0.25 70
20260506122906 55 174 2.0 4.0 0.03 0.25 0.25 71
20260506122806 55 184 1.0 4.0 0.03 0.25 0.25 71
20260506122706 55 185 2.0 4.0 0.03 0.25 0.25 70
20260506122606 55 167 2.0 4.0 0.03 0.25 0.25 69
20260506122506 55 193 2.0 4.0 0.03 0.25 0.25 70
20260506122406 55 187 1.0 4.0 0.03 0.25 0.25 70
20260506122306 55 161 1.0 4.0 0.03 0.25 0.25 69
20260506122206 55 190 1.0 4.0 0.03 0.25 0.25 69
20260506122106 55 170 1.0 4.0 0.03 0.25 0.25 70
20260506122006 56 167 1.0 4.0 0.03 0.25 0.25 70
20260506121906 56 187 1.0 4.0 0.03 0.25 0.25 69
20260506121806 55 187 0.0 4.0 0.03 0.25 0.25 69
20260506121706 55 190 1.0 4.0 0.03 0.25 0.25 68
20260506121606 55 184 2.0 4.0 0.03 0.25 0.25 69
20260506121506 55 170 1.0 4.0 0.03 0.25 0.25 68
20260506121406 56 176 1.0 4.0 0.03 0.25 0.25 69
20260506121306 56 183 2.0 4.0 0.03 0.25 0.25 69
20260506121206 56 194 2.0 4.0 0.03 0.24 0.24 67
20260506121106 56 187 1.0 5.0 0.03 0.24 0.24 68
20260506121006 56 168 1.0 5.0 0.03 0.24 0.24 67
20260506120906 56 158 1.0 5.0 0.03 0.24 0.24 68
20260506120806 56 152 1.0 5.0 0.03 0.24 0.24 69
20260506120706 55 187 2.0 5.0 0.03 0.24 0.24 69
20260506120606 55 172 2.0 5.0 0.03 0.24 0.24 69
20260506120506 55 189 2.0 5.0 0.03 0.24 0.24 69
20260506120406 55 193 2.0 5.0 0.03 0.24 0.24 68
20260506120306 55 202 3.0 5.0 0.03 0.24 0.24 69
20260506120206 55 184 2.0 10.0 0.03 0.24 0.24 71
20260506120106 55 172 2.0 10.0 0.03 0.24 0.24 70
20260506120006 55 188 2.0 10.0 0.03 0.24 0.24 71
20260506115906 55 182 2.0 10.0 0.03 0.24 0.24 72
20260506115806 54 184 5.0 10.0 0.03 0.24 0.24 70
20260506115706 55 165 5.0 10.0 0.03 0.24 0.24 69
20260506115606 55 188 6.0 10.0 0.03 0.24 0.24 69
20260506115506 55 183 4.0 8.0 0.04 0.24 0.24 70
20260506115406 55 186 4.0 7.0 0.04 0.24 0.24 71
20260506115307 55 169 4.0 7.0 0.04 0.24 0.24 69
20260506115206 55 163 4.0 7.0 0.04 0.24 0.24 71
20260506115106 55 174 3.0 5.0 0.03 0.22 0.22 74
20260506115006 55 188 2.0 5.0 0.03 0.22 0.22 76
20260506114906 55 172 2.0 5.0 0.03 0.22 0.22 75
20260506114806 55 188 2.0 5.0 0.03 0.22 0.22 75
20260506114706 54 184 3.0 5.0 0.03 0.22 0.22 76
20260506114606 54 187 3.0 5.0 0.03 0.22 0.22 77
20260506114506 54 181 3.0 5.0 0.03 0.22 0.22 76
20260506114406 54 190 2.0 5.0 0.03 0.22 0.22 77
20260506114306 54 187 2.0 5.0 0.03 0.22 0.22 77
20260506114206 53 175 2.0 5.0 0.03 0.22 0.22 78
20260506114106 53 187 1.0 5.0 0.03 0.22 0.22 77
20260506114006 53 197 3.0 5.0 0.03 0.22 0.22 77
20260506113906 53 183 1.0 5.0 0.04 0.22 0.22 78
20260506113806 53 185 0.0 5.0 0.04 0.22 0.22 79
20260506113706 53 188 3.0 5.0 0.04 0.22 0.22 78
20260506113606 53 181 2.0 5.0 0.04 0.22 0.22 78
20260506113506 53 172 2.0 5.0 0.04 0.22 0.22 78
20260506113406 53 175 3.0 5.0 0.04 0.22 0.22 80
20260506113306 53 170 3.0 5.0 0.04 0.22 0.22 78
20260506113206 53 168 3.0 5.0 0.04 0.22 0.22 79
20260506113106 53 187 3.0 5.0 0.04 0.22 0.22 79
20260506113006 53 178 3.0 5.0 0.04 0.22 0.22 80
20260506112906 53 174 3.0 5.0 0.04 0.22 0.22 81
20260506112806 53 171 2.0 5.0 0.04 0.22 0.22 81
20260506112706 52 175 2.0 5.0 0.05 0.22 0.22 81
20260506112606 52 165 2.0 11.0 0.05 0.22 0.22 80
20260506112506 52 174 3.0 11.0 0.05 0.22 0.22 80
20260506112406 52 169 3.0 11.0 0.05 0.23 0.22 80
20260506112306 52 182 3.0 11.0 0.05 0.23 0.22 79
20260506112206 52 187 5.0 11.0 0.06 0.23 0.22 80
20260506112106 52 166 3.0 8.0 0.06 0.23 0.22 80
20260506112006 52 187 3.0 5.0 0.06 0.23 0.22 80
20260506111906 52 166 2.0 7.0 0.06 0.23 0.22 80
20260506111806 52 186 2.0 7.0 0.05 0.22 0.21 80
20260506111706 52 176 3.0 10.0 0.06 0.22 0.21 80
20260506111606 52 177 3.0 10.0 0.06 0.22 0.21 81
20260506111506 52 184 4.0 10.0 0.06 0.22 0.21 80
20260506111406 52 166 4.0 10.0 0.06 0.22 0.21 81
20260506111306 52 185 5.0 10.0 0.07 0.22 0.21 80
20260506111206 52 173 5.0 10.0 0.07 0.22 0.21 81
20260506111106 52 218 3.0 7.0 0.07 0.22 0.21 83
20260506111006 52 196 2.0 7.0 0.07 0.22 0.21 84
20260506110906 52 170 2.0 7.0 0.07 0.22 0.21 83
20260506110806 52 169 3.0 8.0 0.07 0.22 0.21 83
20260506110706 52 175 3.0 10.0 0.07 0.22 0.20 83
20260506110606 52 193 3.0 10.0 0.07 0.22 0.20 82
20260506110506 52 176 3.0 10.0 0.07 0.22 0.20 82
20260506110406 52 170 5.0 10.0 0.07 0.22 0.20 82
20260506110306 52 169 5.0 10.0 0.07 0.22 0.20 84
20260506110206 52 196 3.0 7.0 0.07 0.22 0.20 85
20260506110106 52 210 1.0 7.0 0.07 0.22 0.20 86
20260506110006 51 175 3.0 7.0 0.08 0.22 0.20 85
20260506105906 51 185 2.0 7.0 0.08 0.22 0.20 85
20260506105806 51 183 5.0 8.0 0.08 0.22 0.20 84
20260506105706 51 172 4.0 11.0 0.08 0.22 0.20 86
20260506105606 51 181 3.0 11.0 0.08 0.21 0.19 86
20260506105506 51 182 4.0 11.0 0.08 0.21 0.19 86
20260506105406 51 163 4.0 11.0 0.08 0.21 0.19 87
20260506105306 51 181 7.0 11.0 0.08 0.21 0.19 87
20260506105206 51 182 4.0 10.0 0.09 0.21 0.19 88
20260506105106 51 168 6.0 10.0 0.09 0.21 0.19 88
20260506105006 51 183 4.0 7.0 0.09 0.21 0.19 89
20260506104906 51 183 3.0 7.0 0.09 0.21 0.19 89
20260506104806 51 186 3.0 7.0 0.09 0.20 0.18 90
20260506104706 51 183 3.0 7.0 0.09 0.20 0.18 90
20260506104606 51 185 3.0 7.0 0.09 0.20 0.18 90
20260506104506 51 184 3.0 5.0 0.09 0.20 0.18 90
20260506104406 51 185 1.0 5.0 0.09 0.20 0.18 90
20260506104306 51 182 2.0 5.0 0.10 0.20 0.18 90
20260506104206 51 170 3.0 5.0 0.10 0.20 0.18 90
20260506104106 51 170 3.0 7.0 0.10 0.20 0.18 91
20260506104006 51 185 3.0 7.0 0.09 0.19 0.18 91
20260506103906 51 175 3.0 7.0 0.10 0.19 0.18 91
20260506103806 51 183 3.0 7.0 0.10 0.19 0.18 90
20260506103706 51 183 4.0 7.0 0.10 0.19 0.18 90
20260506103606 51 193 2.0 8.0 0.10 0.19 0.18 90
20260506103506 51 187 3.0 8.0 0.10 0.19 0.18 90
20260506103406 50 181 3.0 8.0 0.10 0.18 0.17 91
20260506103306 50 184 3.0 8.0 0.10 0.18 0.17 91
20260506103206 50 183 5.0 8.0 0.10 0.18 0.17 91
20260506103106 50 183 6.0 8.0 0.10 0.18 0.17 91
20260506103006 50 183 2.0 8.0 0.10 0.18 0.17 91
20260506102906 50 206 3.0 8.0 0.10 0.18 0.17 91
20260506102806 50 189 2.0 8.0 0.10 0.18 0.16 91
20260506102706 50 183 3.0 8.0 0.10 0.18 0.16 91
20260506102606 50 176 5.0 8.0 0.10 0.18 0.16 91
20260506102506 50 181 3.0 7.0 0.10 0.18 0.16 91
20260506102406 50 182 2.0 5.0 0.10 0.18 0.16 91
20260506102306 50 184 2.0 7.0 0.09 0.17 0.15 91
20260506102206 50 184 2.0 7.0 0.10 0.17 0.15 91
20260506102106 50 190 2.0 7.0 0.10 0.17 0.15 91
20260506102006 50 191 2.0 7.0 0.10 0.17 0.15 91
20260506101906 50 183 4.0 7.0 0.10 0.17 0.15 91
20260506101806 50 181 4.0 7.0 0.09 0.16 0.14 91
20260506101706 50 186 4.0 7.0 0.10 0.16 0.14 91
20260506101606 50 184 2.0 5.0 0.10 0.16 0.14 91
20260506101506 50 186 2.0 5.0 0.10 0.16 0.14 91
20260506101406 50 185 3.0 5.0 0.09 0.15 0.14 91
20260506101306 50 198 4.0 7.0 0.09 0.15 0.14 91
20260506101206 50 182 3.0 7.0 0.09 0.15 0.14 91
20260506101106 50 188 3.0 7.0 0.09 0.15 0.14 91
20260506101006 50 181 3.0 7.0 0.10 0.15 0.14 91
20260506100906 50 182 4.0 7.0 0.09 0.14 0.13 92
20260506100806 50 189 3.0 5.0 0.09 0.14 0.13 92
20260506100706 50 184 2.0 5.0 0.09 0.14 0.13 92
20260506100606 50 186 1.0 5.0 0.08 0.14 0.12 92
20260506100506 50 183 3.0 5.0 0.08 0.14 0.12 91
20260506100406 50 175 3.0 5.0 0.08 0.14 0.12 91
20260506100306 50 187 2.0 5.0 0.09 0.14 0.12 91
20260506100206 50 187 4.0 7.0 0.09 0.14 0.12 91
20260506100106 50 182 3.0 8.0 0.08 0.13 0.11 91
20260506100006 50 181 3.0 8.0 0.08 0.13 0.11 91
20260506095906 50 184 2.0 8.0 0.08 0.13 0.11 92
20260506095806 50 184 4.0 8.0 0.08 0.13 0.11 91
20260506095706 50 184 5.0 8.0 0.07 0.12 0.11 91
20260506095606 50 178 4.0 7.0 0.07 0.12 0.11 91
20260506095506 50 181 3.0 8.0 0.07 0.12 0.11 91
20260506095406 50 184 3.0 8.0 0.08 0.12 0.11 92
20260506095306 50 188 2.0 8.0 0.07 0.11 0.10 91
20260506095206 50 183 2.0 8.0 0.07 0.11 0.10 91
20260506095106 50 189 4.0 8.0 0.07 0.11 0.10 91
20260506095006 51 187 5.0 7.0 0.07 0.11 0.10 91
20260506094906 51 183 4.0 7.0 0.07 0.11 0.09 92
20260506094806 51 181 2.0 7.0 0.07 0.11 0.09 91
20260506094706 51 183 3.0 7.0 0.07 0.11 0.09 91
20260506094606 51 181 4.0 7.0 0.07 0.11 0.09 91
20260506094506 51 184 3.0 5.0 0.07 0.11 0.09 92
20260506094406 51 182 2.0 5.0 0.07 0.10 0.08 92
20260506094306 51 186 2.0 5.0 0.07 0.10 0.08 92
20260506094206 51 183 2.0 5.0 0.07 0.10 0.08 91
20260506094106 51 183 2.0 7.0 0.07 0.10 0.08 91
20260506094006 51 184 3.0 7.0 0.06 0.09 0.07 91
20260506093906 51 183 2.0 7.0 0.06 0.09 0.07 91
20260506093806 51 183 2.0 7.0 0.06 0.09 0.07 91
20260506093706 51 184 3.0 7.0 0.06 0.09 0.07 91
20260506093606 51 177 2.0 4.0 0.06 0.09 0.07 91
20260506093506 51 185 2.0 4.0 0.05 0.08 0.07 91
20260506093406 51 183 2.0 4.0 0.05 0.08 0.07 91
20260506093306 51 188 2.0 4.0 0.05 0.08 0.07 91
20260506093206 51 189 2.0 5.0 0.05 0.08 0.07 91
20260506093106 51 187 2.0 5.0 0.05 0.08 0.07 91
20260506093006 51 185 2.0 8.0 0.05 0.08 0.07 91
20260506092906 51 189 2.0 8.0 0.04 0.07 0.06 91
20260506092806 51 184 2.0 8.0 0.04 0.07 0.06 91
20260506092706 51 183 3.0 8.0 0.04 0.07 0.06 90
20260506092606 51 183 5.0 8.0 0.04 0.07 0.06 91
20260506092506 51 181 3.0 7.0 0.04 0.07 0.06 90
20260506092406 51 182 5.0 7.0 0.05 0.07 0.06 90
20260506092306 51 185 5.0 7.0 0.04 0.07 0.05 90
20260506092206 51 173 3.0 5.0 0.04 0.07 0.05 90
20260506092106 51 184 4.0 5.0 0.04 0.07 0.05 90
20260506092006 51 181 3.0 5.0 0.04 0.07 0.05 90
20260506091906 51 175 3.0 5.0 0.04 0.07 0.05 90
20260506091806 51 185 2.0 5.0 0.03 0.06 0.04 90
20260506091706 51 190 2.0 5.0 0.03 0.06 0.04 90
20260506091606 51 186 2.0 5.0 0.03 0.06 0.04 90
20260506091506 51 183 2.0 4.0 0.03 0.06 0.04 90
20260506091406 51 183 2.0 4.0 0.03 0.06 0.04 90
20260506091306 51 186 1.0 5.0 0.03 0.06 0.04 89
20260506091206 51 183 2.0 5.0 0.03 0.06 0.04 89
20260506091106 51 187 2.0 5.0 0.03 0.05 0.03 89
20260506091006 51 187 2.0 5.0 0.03 0.05 0.03 89
20260506090906 51 184 3.0 5.0 0.03 0.05 0.03 89
20260506090806 51 181 3.0 5.0 0.03 0.05 0.03 89
20260506090706 51 182 2.0 4.0 0.03 0.05 0.03 89
20260506090606 51 185 1.0 4.0 0.03 0.05 0.03 89
20260506090506 51 186 1.0 4.0 0.03 0.05 0.03 88
20260506090406 51 186 1.0 4.0 0.02 0.04 0.03 88
20260506090306 51 185 2.0 4.0 0.02 0.04 0.03 88
20260506090206 51 183 2.0 4.0 0.02 0.04 0.03 88
20260506090106 51 184 2.0 5.0 0.02 0.04 0.03 88
20260506090006 51 184 2.0 5.0 0.02 0.04 0.03 87
20260506085906 52 183 2.0 5.0 0.02 0.04 0.03 87
20260506085806 52 193 2.0 5.0 0.02 0.04 0.03 87
20260506085706 52 184 2.0 5.0 0.02 0.04 0.03 87
20260506085606 52 185 2.0 5.0 0.02 0.04 0.03 87
20260506085506 52 183 3.0 5.0 0.01 0.03 0.02 86
20260506085406 52 185 2.0 5.0 0.01 0.03 0.02 86
20260506085306 52 187 3.0 5.0 0.01 0.03 0.02 86
20260506085206 52 182 2.0 4.0 0.01 0.03 0.02 86
20260506085106 52 177 2.0 4.0 0.02 0.03 0.02 86
20260506085006 52 182 2.0 4.0 0.02 0.03 0.02 86
20260506084906 52 185 2.0 4.0 0.02 0.03 0.02 86
20260506084806 52 186 1.0 4.0 0.02 0.03 0.02 86
20260506084706 52 182 2.0 4.0 0.02 0.03 0.02 86
20260506084606 52 186 1.0 4.0 0.02 0.03 0.02 86
20260506084506 52 188 2.0 4.0 0.01 0.03 0.01 86
20260506084406 52 183 2.0 4.0 0.01 0.03 0.01 86
20260506084306 52 183 2.0 4.0 0.01 0.03 0.01 86
20260506084206 52 185 1.0 4.0 0.01 0.03 0.01 86
20260506084106 52 184 2.0 4.0 0.01 0.03 0.01 86
20260506084006 52 185 1.0 4.0 0.01 0.03 0.01 86
20260506083906 52 186 1.0 4.0 0.01 0.03 0.01 86
20260506083806 52 186 1.0 4.0 0.01 0.03 0.01 86
20260506083706 52 186 1.0 4.0 0.01 0.03 0.01 86
20260506083606 52 187 1.0 4.0 0.01 0.03 0.01 87
20260506083506 52 186 2.0 4.0 0.01 0.03 0.01 86
20260506083406 52 185 1.0 4.0 0.01 0.03 0.01 87
20260506083306 52 185 1.0 4.0 0.01 0.03 0.01 87
20260506083206 52 186 2.0 4.0 0.01 0.03 0.01 87
20260506083106 52 183 1.0 4.0 0.01 0.03 0.01 87
20260506083006 52 186 2.0 4.0 0.01 0.03 0.01 86
20260506082906 52 183 2.0 4.0 0.01 0.03 0.01 87
20260506082806 52 196 1.0 4.0 0.01 0.03 0.01 87
20260506082706 52 191 1.0 4.0 0.01 0.03 0.01 86
20260506082606 52 190 1.0 4.0 0.01 0.03 0.01 87
20260506082506 52 189 0.0 4.0 0.00 0.02 0.00 87
20260506082406 52 188 1.0 4.0 0.00 0.02 0.00 86
20260506082306 52 185 1.0 4.0 0.00 0.02 0.00 86
20260506082206 52 185 2.0 4.0 0.00 0.02 0.00 86
20260506082106 52 184 2.0 4.0 0.00 0.02 0.00 86
20260506082006 52 186 1.0 4.0 0.00 0.02 0.00 86
20260506081906 52 186 1.0 4.0 0.00 0.02 0.00 85
20260506081806 52 187 2.0 4.0 0.00 0.02 0.00 85
20260506081706 52 187 1.0 4.0 0.00 0.02 0.00 85
20260506081606 52 181 2.0 4.0 0.00 0.02 0.00 85
20260506081506 53 181 2.0 4.0 0.00 0.02 0.00 84
20260506081406 53 185 1.0 4.0 0.00 0.02 0.00 85
20260506081306 53 185 1.0 4.0 0.00 0.02 0.00 85
20260506081206 53 183 2.0 4.0 0.00 0.02 0.00 84
20260506081106 53 183 1.0 4.0 0.00 0.02 0.00 84
20260506081006 53 183 2.0 4.0 0.00 0.02 0.00 84
20260506080906 53 182 2.0 4.0 0.00 0.02 0.00 84
20260506080806 53 192 1.0 2.0 0.00 0.02 0.00 84
20260506080706 53 193 1.0 2.0 0.00 0.02 0.00 84
20260506080606 53 195 1.0 2.0 0.00 0.02 0.00 83
20260506080506 53 197 0.0 2.0 0.00 0.02 0.00 84
20260506080406 53 197 0.0 2.0 0.00 0.02 0.00 83
20260506080306 53 185 0.0 2.0 0.00 0.02 0.00 84
20260506080206 53 185 0.0 2.0 0.00 0.02 0.00 83
20260506080106 53 185 0.0 2.0 0.00 0.02 0.00 83
20260506073506 53 185 1.0 2.0 0.00 0.01 0.00 80
20260506073406 53 190 0.0 2.0 0.00 0.01 0.00 80
20260506073306 53 190 0.0 2.0 0.00 0.01 0.00 80
20260506073206 53 190 0.0 2.0 0.00 0.01 0.00 80
20260506073106 53 190 0.0 2.0 0.00 0.01 0.00 80
20260506073006 53 190 0.0 2.0 0.00 0.01 0.00 79
20260506072906 52 190 0.0 2.0 0.00 0.01 0.00 79
20260506072806 52 189 0.0 2.0 0.00 0.01 0.00 79
20260506072706 53 189 1.0 2.0 0.00 0.01 0.00 78
20260506072606 53 190 0.0 2.0 0.00 0.01 0.00 78
20260506072506 53 190 0.0 2.0 0.00 0.01 0.00 78
20260506072406 53 190 0.0 2.0 0.00 0.01 0.00 79
20260506072306 53 190 0.0 4.0 0.00 0.01 0.00 79
20260506072206 53 190 0.0 4.0 0.00 0.01 0.00 79
20260506072106 53 190 0.0 4.0 0.00 0.01 0.00 78
20260506072006 53 190 1.0 4.0 0.00 0.01 0.00 79
20260506071906 53 189 1.0 4.0 0.00 0.01 0.00 79
20260506071806 53 190 1.0 2.0 0.00 0.01 0.00 77
20260506071706 53 191 1.0 2.0 0.00 0.01 0.00 76
20260506071606 53 192 1.0 2.0 0.00 0.01 0.00 76
20260506071506 53 193 0.0 2.0 0.00 0.01 0.00 75
20260506071406 53 193 0.0 2.0 0.00 0.01 0.00 75
20260506071306 53 193 0.0 2.0 0.00 0.01 0.00 75
20260506071206 53 193 0.0 1.0 0.00 0.01 0.00 76
20260506071106 53 193 0.0 1.0 0.00 0.01 0.00 75
20260506071006 53 193 0.0 1.0 0.00 0.01 0.00 75
20260506070906 53 193 0.0 1.0 0.00 0.01 0.00 75
20260506070806 53 193 0.0 1.0 0.00 0.01 0.00 75
20260506070706 53 193 0.0 1.0 0.00 0.01 0.00 76
20260506070606 52 193 0.0 1.0 0.00 0.01 0.00 76
20260506070506 52 193 0.0 2.0 0.00 0.01 0.00 76
20260506070406 52 193 0.0 2.0 0.00 0.01 0.00 75
20260506070306 52 193 0.0 2.0 0.00 0.01 0.00 76
20260506070206 52 193 0.0 2.0 0.00 0.01 0.00 76
20260506070106 52 193 0.0 2.0 0.00 0.01 0.00 76
20260506062506 50 194 0.0 1.0 0.00 0.01 0.00 80
20260506062406 50 195 0.0 1.0 0.00 0.01 0.00 81
20260506062306 50 195 0.0 2.0 0.00 0.01 0.00 81
20260506062206 50 194 0.0 2.0 0.00 0.01 0.00 81
20260506062106 50 194 0.0 2.0 0.00 0.01 0.00 81
20260506062006 50 194 0.0 2.0 0.00 0.01 0.00 81
20260506061906 50 194 0.0 2.0 0.00 0.01 0.00 81
20260506061806 50 204 0.0 1.0 0.00 0.01 0.00 81
20260506061706 50 317 0.0 1.0 0.00 0.01 0.00 81
20260506061606 50 321 0.0 1.0 0.00 0.01 0.00 82
20260506061506 50 322 0.0 1.0 0.00 0.01 0.00 82
20260506061406 50 321 0.0 1.0 0.00 0.01 0.00 82
20260506061306 50 322 0.0 1.0 0.00 0.01 0.00 82
20260506061206 50 321 0.0 2.0 0.00 0.01 0.00 83
20260506061106 50 322 0.0 2.0 0.00 0.01 0.00 83
20260506061006 50 321 0.0 2.0 0.00 0.01 0.00 83
20260506060906 50 322 0.0 2.0 0.00 0.01 0.00 82
20260506060806 50 323 1.0 2.0 0.00 0.01 0.00 83
20260506060706 50 187 0.0 2.0 0.00 0.01 0.00 83
20260506060606 50 182 0.0 2.0 0.00 0.01 0.00 83
20260506060506 50 185 0.0 2.0 0.00 0.01 0.00 83
20260506060406 50 181 0.0 2.0 0.00 0.01 0.00 83
20260506060306 50 185 0.0 2.0 0.00 0.01 0.00 82
20260506060206 50 185 0.0 2.0 0.00 0.01 0.00 81
20260506060106 50 183 0.0 2.0 0.00 0.01 0.00 81
20260506051406 49 185 0.0 1.0 0.00 0.01 0.00 83
20260506051306 49 185 0.0 1.0 0.00 0.01 0.00 83
20260506051206 49 184 0.0 1.0 0.00 0.01 0.00 83
20260506051106 49 186 0.0 2.0 0.00 0.01 0.00 83
20260506051006 49 186 0.0 2.0 0.00 0.01 0.00 83
20260506050906 49 185 0.0 2.0 0.00 0.01 0.00 83
20260506050806 49 185 0.0 2.0 0.00 0.01 0.00 83
20260506050706 49 183 0.0 2.0 0.00 0.01 0.00 83
20260506050606 49 185 1.0 2.0 0.00 0.01 0.00 83
20260506050506 49 185 1.0 2.0 0.00 0.01 0.00 84
20260506050406 49 182 0.0 1.0 0.00 0.01 0.00 84
20260506050306 49 182 0.0 1.0 0.00 0.01 0.00 84
20260506050206 49 184 0.0 1.0 0.00 0.01 0.00 85
20260506050106 49 184 0.0 1.0 0.00 0.01 0.00 85
20260506045106 49 186 1.0 2.0 0.00 0.01 0.00 86
20260506045006 48 182 0.0 2.0 0.00 0.01 0.00 86
20260506044906 48 184 0.0 2.0 0.00 0.01 0.00 86
20260506044806 48 182 0.0 2.0 0.00 0.01 0.00 86
20260506044706 48 181 1.0 2.0 0.00 0.01 0.00 86
20260506044606 48 183 0.0 2.0 0.00 0.01 0.00 86
20260506044506 48 183 0.0 2.0 0.00 0.01 0.00 86
20260506044406 48 183 0.0 2.0 0.00 0.01 0.00 86
20260506044306 48 183 0.0 2.0 0.00 0.01 0.00 86
20260506044206 48 183 0.0 2.0 0.00 0.01 0.00 86
20260506044106 48 183 0.0 2.0 0.00 0.01 0.00 86
20260506044006 48 183 0.0 2.0 0.00 0.01 0.00 86
20260506043906 48 183 0.0 2.0 0.00 0.01 0.00 86
20260506043806 48 183 1.0 2.0 0.00 0.01 0.00 86
20260506043706 48 183 1.0 2.0 0.00 0.01 0.00 86
20260506043606 48 185 1.0 2.0 0.00 0.01 0.00 86
20260506043506 48 183 1.0 2.0 0.00 0.01 0.00 86
20260506043406 48 184 1.0 2.0 0.00 0.01 0.00 86
20260506043306 48 176 0.0 2.0 0.00 0.01 0.00 86
20260506043206 48 186 0.0 2.0 0.00 0.01 0.00 85
20260506043106 48 183 0.0 1.0 0.00 0.01 0.00 86
20260506043006 48 184 0.0 1.0 0.00 0.01 0.00 86
20260506042906 48 184 0.0 1.0 0.00 0.01 0.00 85
20260506042806 48 184 0.0 1.0 0.00 0.01 0.00 86
20260506042706 48 184 0.0 1.0 0.00 0.01 0.00 85
20260506042606 48 183 0.0 1.0 0.00 0.01 0.00 85
20260506042506 48 183 0.0 1.0 0.00 0.01 0.00 85
20260506042406 48 183 0.0 1.0 0.00 0.01 0.00 85
20260506042306 48 183 0.0 1.0 0.00 0.01 0.00 85
20260506042206 48 182 0.0 1.0 0.00 0.01 0.00 85
20260506042106 48 186 0.0 1.0 0.00 0.01 0.00 85
20260506042006 48 186 0.0 1.0 0.00 0.01 0.00 85
20260506041906 48 183 0.0 1.0 0.00 0.01 0.00 85
20260506041806 48 183 0.0 1.0 0.00 0.01 0.00 85
20260506041706 48 183 0.0 1.0 0.00 0.01 0.00 85
20260506041606 48 184 0.0 2.0 0.00 0.01 0.00 85
20260506041506 48 182 0.0 2.0 0.00 0.01 0.00 86
20260506041406 48 181 0.0 2.0 0.00 0.01 0.00 86
20260506041306 48 181 0.0 4.0 0.00 0.01 0.00 86
20260506041206 48 181 0.0 4.0 0.00 0.01 0.00 86
20260506041106 48 183 0.0 5.0 0.00 0.01 0.00 86
20260506041006 48 182 0.0 5.0 0.00 0.01 0.00 86
20260506040906 48 181 1.0 5.0 0.00 0.01 0.00 86
20260506040806 48 182 2.0 5.0 0.00 0.01 0.00 86
20260506040706 48 182 2.0 5.0 0.00 0.01 0.00 87
20260506040606 48 181 1.0 5.0 0.00 0.01 0.00 87
20260506040506 48 182 0.0 5.0 0.00 0.01 0.00 87
20260506040406 48 183 2.0 5.0 0.00 0.01 0.00 86
20260506040306 48 183 2.0 5.0 0.00 0.01 0.00 87
20260506040206 48 185 0.0 4.0 0.00 0.01 0.00 87
20260506040106 48 182 1.0 4.0 0.00 0.01 0.00 87
20260506040006 48 181 1.0 4.0 0.00 0.01 0.00 87
20260506035906 48 181 2.0 4.0 0.00 0.01 0.00 87
20260506035806 48 177 2.0 4.0 0.00 0.01 0.00 87
20260506035706 48 186 2.0 4.0 0.00 0.01 0.00 87
20260506035606 48 183 1.0 4.0 0.00 0.01 0.00 87
20260506035506 48 185 1.0 4.0 0.00 0.01 0.00 86
20260506035406 48 184 2.0 4.0 0.00 0.01 0.00 86
20260506035306 48 183 1.0 2.0 0.00 0.01 0.00 86
20260506035206 48 183 0.0 2.0 0.00 0.01 0.00 86
20260506035106 48 183 0.0 1.0 0.00 0.01 0.00 86
20260506035006 48 183 0.0 1.0 0.00 0.01 0.00 86
20260506034906 48 183 0.0 1.0 0.00 0.01 0.00 86
20260506034806 48 183 0.0 1.0 0.00 0.01 0.00 86
20260506034706 48 183 0.0 1.0 0.00 0.01 0.00 87
20260506034606 48 183 0.0 1.0 0.00 0.01 0.00 87
20260506034506 48 183 0.0 1.0 0.00 0.01 0.00 87
20260506034406 48 183 0.0 1.0 0.00 0.01 0.00 87
20260506034306 48 183 0.0 4.0 0.00 0.01 0.00 87
20260506034206 48 183 0.0 4.0 0.00 0.01 0.00 87
20260506034106 48 183 0.0 4.0 0.00 0.01 0.00 87
20260506034006 48 183 0.0 4.0 0.00 0.01 0.00 86
20260506033906 48 183 1.0 4.0 0.00 0.01 0.00 87
20260506033806 48 183 1.0 2.0 0.00 0.01 0.00 87
20260506033706 48 182 1.0 2.0 0.00 0.01 0.00 87
20260506033606 48 183 1.0 2.0 0.00 0.01 0.00 87
20260506033506 48 186 1.0 2.0 0.00 0.01 0.00 87
20260506033406 48 183 1.0 2.0 0.00 0.01 0.00 88
20260506033306 47 183 1.0 2.0 0.00 0.01 0.00 88
20260506033206 48 185 0.0 2.0 0.00 0.01 0.00 88
20260506033106 47 182 0.0 2.0 0.00 0.01 0.00 88
20260506033006 47 182 1.0 2.0 0.00 0.01 0.00 88
20260506032906 47 181 1.0 2.0 0.00 0.01 0.00 88
20260506032806 47 182 1.0 2.0 0.00 0.01 0.00 88
20260506032706 47 182 0.0 2.0 0.00 0.01 0.00 88
20260506032606 47 184 0.0 1.0 0.00 0.01 0.00 88
20260506032506 47 183 0.0 1.0 0.00 0.01 0.00 88
20260506032406 47 183 0.0 1.0 0.00 0.01 0.00 88
20260506032306 47 183 0.0 1.0 0.00 0.01 0.00 88
20260506032206 47 183 0.0 1.0 0.00 0.01 0.00 88
20260506032106 47 183 0.0 1.0 0.00 0.01 0.00 87
20260506032006 47 182 0.0 1.0 0.00 0.01 0.00 88
20260506031906 47 182 0.0 1.0 0.00 0.01 0.00 87
20260506031806 47 183 0.0 1.0 0.00 0.01 0.00 87
20260506031706 47 182 0.0 1.0 0.00 0.01 0.00 87
20260506031606 47 182 0.0 1.0 0.00 0.01 0.00 88
20260506031506 47 183 0.0 1.0 0.00 0.01 0.00 88
20260506031406 47 183 0.0 1.0 0.00 0.01 0.00 88
20260506031306 47 182 0.0 1.0 0.00 0.01 0.00 88
20260506031206 48 183 0.0 1.0 0.00 0.01 0.00 88
20260506031106 47 182 0.0 1.0 0.00 0.01 0.00 88
20260506031006 47 183 0.0 1.0 0.00 0.01 0.00 88
20260506030906 47 182 0.0 1.0 0.00 0.01 0.00 88
20260506030806 47 182 0.0 1.0 0.00 0.01 0.00 87
20260506030706 47 184 0.0 1.0 0.00 0.01 0.00 87
20260506030606 47 181 0.0 1.0 0.00 0.01 0.00 87
20260506030506 47 182 0.0 1.0 0.00 0.01 0.00 87
20260506030406 47 182 0.0 1.0 0.00 0.01 0.00 87
20260506030306 48 183 0.0 1.0 0.00 0.01 0.00 87
20260506030206 48 182 0.0 1.0 0.00 0.01 0.00 87
20260506030106 48 183 0.0 1.0 0.00 0.01 0.00 87
20260506030006 48 182 0.0 1.0 0.00 0.01 0.00 87
20260506025906 48 183 0.0 1.0 0.00 0.01 0.00 87
20260506025806 48 184 0.0 1.0 0.00 0.01 0.00 87
20260506025706 48 182 0.0 1.0 0.00 0.01 0.00 87
20260506025606 48 182 0.0 1.0 0.00 0.01 0.00 87
20260506025506 48 183 0.0 1.0 0.00 0.01 0.00 86
20260506025406 48 182 0.0 1.0 0.00 0.01 0.00 87
20260506025306 48 183 0.0 1.0 0.00 0.01 0.00 87
20260506025206 48 183 0.0 1.0 0.00 0.01 0.00 87
20260506025106 48 183 0.0 1.0 0.00 0.01 0.00 87
20260506025006 48 183 0.0 1.0 0.00 0.01 0.00 87
20260506024906 48 183 0.0 0.0 0.00 0.01 0.00 87
20260506024806 48 183 0.0 1.0 0.00 0.01 0.00 87
20260506024706 47 182 0.0 1.0 0.00 0.01 0.00 86
20260506024606 47 182 0.0 1.0 0.00 0.01 0.00 87
20260506024506 47 183 0.0 1.0 0.00 0.01 0.00 86
20260506024406 47 183 0.0 1.0 0.00 0.01 0.00 86
20260506024306 48 181 0.0 1.0 0.00 0.01 0.00 86
20260506024206 48 177 0.0 1.0 0.00 0.01 0.00 86
20260506024106 48 178 0.0 1.0 0.00 0.01 0.00 86
20260506024006 48 177 0.0 1.0 0.00 0.01 0.00 87
20260506023906 48 178 0.0 1.0 0.00 0.01 0.00 86
20260506023806 48 178 0.0 1.0 0.00 0.01 0.00 86
20260506023706 48 178 0.0 1.0 0.00 0.01 0.00 87
20260506023606 48 182 0.0 1.0 0.00 0.01 0.00 87
20260506023506 48 183 0.0 1.0 0.00 0.01 0.00 86
20260506023406 48 182 0.0 1.0 0.00 0.01 0.00 86
20260506023306 48 182 0.0 1.0 0.00 0.01 0.00 86
20260506023206 48 183 0.0 1.0 0.00 0.01 0.00 85
20260506023106 48 183 0.0 1.0 0.00 0.01 0.00 86
20260506023006 48 183 0.0 1.0 0.00 0.01 0.00 86
20260506022906 48 186 0.0 2.0 0.00 0.01 0.00 86
20260506022806 48 186 0.0 2.0 0.00 0.01 0.00 85
20260506022706 48 187 0.0 2.0 0.00 0.01 0.00 85
20260506022606 48 185 0.0 2.0 0.00 0.01 0.00 85
20260506022506 49 184 0.0 2.0 0.00 0.01 0.00 85
20260506022406 49 184 0.0 1.0 0.00 0.01 0.00 86
20260506022306 49 184 0.0 1.0 0.00 0.01 0.00 87
20260506022206 49 184 0.0 1.0 0.00 0.01 0.00 87
20260506022106 49 184 0.0 1.0 0.00 0.01 0.00 87
20260506022006 49 184 0.0 1.0 0.00 0.01 0.00 87
20260506021906 49 184 0.0 1.0 0.00 0.01 0.00 87
20260506021806 49 184 0.0 1.0 0.00 0.01 0.00 87
20260506021706 49 184 0.0 1.0 0.00 0.01 0.00 87
20260506021606 49 184 0.0 1.0 0.00 0.01 0.00 87
20260506021506 49 184 0.0 1.0 0.00 0.01 0.00 87
20260506021406 49 184 0.0 1.0 0.00 0.01 0.00 87
20260506021306 49 184 0.0 1.0 0.00 0.01 0.00 87
20260506021206 49 184 0.0 2.0 0.00 0.01 0.00 87
20260506021106 49 184 0.0 2.0 0.00 0.01 0.00 87
20260506021006 49 184 0.0 2.0 0.00 0.01 0.00 87
20260506020906 49 184 0.0 2.0 0.00 0.01 0.00 87
20260506020806 49 184 0.0 2.0 0.00 0.01 0.00 86
20260506020706 49 181 0.0 1.0 0.00 0.01 0.00 86
20260506020606 49 185 0.0 1.0 0.00 0.01 0.00 86
20260506020506 49 186 0.0 1.0 0.00 0.01 0.00 86
20260506020406 49 186 0.0 1.0 0.00 0.01 0.00 86
20260506020306 49 185 0.0 1.0 0.00 0.01 0.00 86
20260506020206 49 185 0.0 1.0 0.00 0.01 0.00 86
20260506020106 49 185 0.0 1.0 0.00 0.01 0.00 86
20260506020006 49 174 0.0 1.0 0.00 0.01 0.00 86
20260506015906 49 185 0.0 1.0 0.00 0.01 0.00 86
20260506015806 49 176 0.0 1.0 0.00 0.01 0.00 86
20260506015706 49 185 0.0 1.0 0.00 0.01 0.00 85
20260506015606 49 185 0.0 1.0 0.00 0.01 0.00 85
20260506015506 49 185 0.0 1.0 0.00 0.01 0.00 85
20260506015406 49 185 0.0 1.0 0.00 0.01 0.00 85
20260506015306 49 185 0.0 1.0 0.00 0.01 0.00 85
20260506015206 49 185 0.0 1.0 0.00 0.01 0.00 85
20260506015106 50 185 0.0 1.0 0.00 0.01 0.00 84
20260506015006 50 185 0.0 1.0 0.00 0.01 0.00 84
20260506014906 50 176 0.0 1.0 0.00 0.01 0.00 84
20260506014806 50 172 0.0 1.0 0.00 0.01 0.00 84
20260506014706 50 177 0.0 1.0 0.00 0.01 0.00 84
20260506014606 50 177 0.0 1.0 0.00 0.01 0.00 84
20260506014506 50 177 0.0 1.0 0.00 0.01 0.00 84
20260506014406 50 177 0.0 1.0 0.00 0.01 0.00 84
20260506014306 50 177 0.0 1.0 0.00 0.01 0.00 84
20260506014206 50 178 0.0 1.0 0.00 0.01 0.00 84
20260506014106 50 177 0.0 1.0 0.00 0.01 0.00 84
20260506014006 50 177 0.0 1.0 0.00 0.01 0.00 83
20260506013906 50 177 0.0 1.0 0.00 0.01 0.00 84
20260506013806 51 177 0.0 1.0 0.00 0.01 0.00 84
20260506013706 51 177 0.0 1.0 0.00 0.01 0.00 84
20260506013606 51 177 0.0 1.0 0.00 0.01 0.00 84
20260506013506 51 177 0.0 1.0 0.00 0.01 0.00 84
20260506013406 51 177 0.0 1.0 0.00 0.01 0.00 84
20260506013306 51 177 0.0 1.0 0.00 0.01 0.00 84
20260506013206 51 177 0.0 1.0 0.00 0.01 0.00 84
20260506013106 51 176 0.0 1.0 0.00 0.01 0.00 83
20260506013006 51 177 0.0 1.0 0.00 0.01 0.00 83
20260506012906 51 177 0.0 1.0 0.00 0.01 0.00 83
20260506012806 51 177 0.0 0.0 0.00 0.01 0.00 83
20260506012706 51 177 0.0 0.0 0.00 0.01 0.00 83
20260506012606 51 177 0.0 0.0 0.00 0.01 0.00 84
20260506012506 51 177 0.0 1.0 0.00 0.01 0.00 84
20260506012406 51 177 0.0 1.0 0.00 0.01 0.00 84
20260506012308 51 177 0.0 1.0 0.00 0.01 0.00 84
20260506012206 51 177 0.0 1.0 0.00 0.01 0.00 84
20260506012106 51 177 0.0 1.0 0.00 0.01 0.00 84
20260506012006 51 177 0.0 1.0 0.00 0.01 0.00 84
20260506011906 51 177 0.0 1.0 0.00 0.01 0.00 84
20260506011806 51 177 0.0 1.0 0.00 0.01 0.00 84
20260506011706 51 176 0.0 1.0 0.00 0.01 0.00 84
20260506011606 51 177 0.0 1.0 0.00 0.01 0.00 84
20260506011506 51 177 0.0 1.0 0.00 0.01 0.00 84
20260506011406 51 177 0.0 1.0 0.00 0.01 0.00 84
20260506011306 51 177 0.0 1.0 0.00 0.01 0.00 84
20260506011206 51 177 0.0 1.0 0.00 0.01 0.00 84
20260506011106 51 177 0.0 1.0 0.00 0.01 0.00 84
20260506011006 51 177 0.0 1.0 0.00 0.01 0.00 84
20260506010906 51 177 0.0 1.0 0.00 0.01 0.00 84
20260506010806 51 177 0.0 1.0 0.00 0.01 0.00 85
20260506010706 51 177 0.0 1.0 0.00 0.01 0.00 84
20260506010606 51 177 0.0 1.0 0.00 0.01 0.00 85
20260506010506 51 177 0.0 1.0 0.00 0.01 0.00 84
20260506010406 51 177 0.0 1.0 0.00 0.01 0.00 85
20260506010306 51 177 0.0 1.0 0.00 0.01 0.00 84
20260506010206 51 177 0.0 1.0 0.00 0.01 0.00 84
20260506010106 51 177 0.0 1.0 0.00 0.01 0.00 84
20260506010006 51 177 0.0 1.0 0.00 0.01 0.00 84
20260506005906 51 178 0.0 1.0 0.00 0.01 0.00 84
20260506005806 51 177 0.0 1.0 0.00 0.01 0.00 84
20260506005706 51 177 0.0 1.0 0.00 0.01 0.00 83
20260506005606 51 177 0.0 1.0 0.00 0.01 0.00 83
20260506005506 51 177 0.0 1.0 0.00 0.01 0.00 83
20260506005406 51 177 0.0 1.0 0.00 0.01 0.00 83
20260506005306 51 185 0.0 1.0 0.00 0.01 0.00 83
20260506005206 51 181 0.0 1.0 0.00 0.01 0.00 83
20260506005106 52 182 0.0 1.0 0.00 0.01 0.00 82
20260506005006 52 181 0.0 1.0 0.00 0.01 0.00 82
20260506004906 52 183 0.0 1.0 0.00 0.01 0.00 82
20260506004806 52 182 0.0 1.0 0.00 0.01 0.00 82
20260506004706 52 182 0.0 1.0 0.00 0.01 0.00 82
20260506004606 52 182 0.0 1.0 0.00 0.01 0.00 82
20260506004506 52 182 0.0 1.0 0.00 0.01 0.00 81
20260506004406 52 182 0.0 1.0 0.00 0.01 0.00 81
20260506004306 52 182 0.0 1.0 0.00 0.01 0.00 81
20260506004206 52 181 0.0 1.0 0.00 0.01 0.00 81
20260506004106 52 183 0.0 1.0 0.00 0.01 0.00 81
20260506004006 52 182 0.0 1.0 0.00 0.01 0.00 80
20260506003906 52 182 0.0 1.0 0.00 0.01 0.00 80
20260506003806 52 182 0.0 1.0 0.00 0.01 0.00 81
20260506003706 52 183 0.0 1.0 0.00 0.01 0.00 81
20260506003606 52 183 0.0 1.0 0.00 0.01 0.00 81
20260506003506 52 181 0.0 1.0 0.00 0.01 0.00 80
20260506003406 52 184 0.0 1.0 0.00 0.01 0.00 81
20260506003306 52 183 0.0 1.0 0.00 0.01 0.00 80
20260506003206 52 184 0.0 1.0 0.00 0.01 0.00 80
20260506003106 52 184 0.0 1.0 0.00 0.01 0.00 80
20260506003006 52 184 0.0 1.0 0.00 0.01 0.00 80
20260506002906 52 183 0.0 1.0 0.00 0.01 0.00 80
20260506002806 52 184 0.0 0.0 0.00 0.01 0.00 80
20260506002706 52 184 0.0 1.0 0.00 0.01 0.00 80
20260506002606 52 184 0.0 1.0 0.00 0.01 0.00 80
20260506002506 53 184 0.0 1.0 0.00 0.01 0.00 80
20260506002406 53 184 0.0 1.0 0.00 0.01 0.00 80
20260506002306 53 184 0.0 1.0 0.00 0.01 0.00 80
20260506002206 53 184 0.0 1.0 0.00 0.01 0.00 79
20260506002106 53 182 0.0 1.0 0.00 0.01 0.00 80
20260506002006 53 185 0.0 1.0 0.00 0.01 0.00 80
20260506001906 53 184 0.0 1.0 0.00 0.01 0.00 79
20260506001806 53 183 0.0 1.0 0.00 0.01 0.00 79
20260506001706 53 184 0.0 1.0 0.00 0.01 0.00 79
20260506001606 53 184 0.0 1.0 0.00 0.01 0.00 79
20260506001506 53 184 0.0 1.0 0.00 0.01 0.00 80
20260506001406 53 184 0.0 1.0 0.00 0.01 0.00 80
20260506001306 53 184 0.0 1.0 0.00 0.01 0.00 80
20260506001206 53 184 0.0 1.0 0.00 0.01 0.00 80
20260506001106 53 184 0.0 1.0 0.00 0.01 0.00 80
20260506001006 53 184 0.0 1.0 0.00 0.01 0.00 80
20260506000906 53 184 0.0 1.0 0.00 0.01 0.00 79
20260506000806 53 184 0.0 1.0 0.00 0.01 0.00 79
20260506000706 53 183 0.0 1.0 0.00 0.01 0.00 79
20260506000606 53 186 0.0 1.0 0.00 0.01 0.00 79
20260506000506 53 184 0.0 1.0 0.00 0.01 0.00 80
20260506000408 53 183 0.0 1.0 0.00 0.01 0.00 79
20260506000306 53 184 0.0 1.0 0.00 0.01 0.00 79
20260506000206 53 184 0.0 1.0 0.00 0.01 0.00 79
20260506000106 53 183 0.0 1.0 0.00 0.01 0.00 79
20260506000006 53 183 0.0 1.0 0.00 0.01 0.00 79
20260505235906 53 184 0.0 2.0 0.00 0.01 0.01 79
20260505235806 53 182 0.0 2.0 0.00 0.01 0.01 79
20260505235706 53 182 0.0 2.0 0.00 0.01 0.01 78
20260505235606 53 186 0.0 2.0 0.00 0.01 0.01 78
20260505235506 53 183 1.0 2.0 0.00 0.01 0.01 78
20260505235406 53 184 0.0 2.0 0.00 0.01 0.01 78
20260505235306 53 184 0.0 4.0 0.00 0.01 0.01 77
20260505235206 54 181 0.0 4.0 0.00 0.01 0.01 77
20260505235106 54 181 1.0 4.0 0.00 0.01 0.01 77
20260505235006 54 183 1.0 4.0 0.00 0.01 0.01 78
20260505234906 54 182 2.0 4.0 0.00 0.01 0.01 78
20260505234806 54 183 1.0 4.0 0.00 0.01 0.01 77
20260505234706 54 184 0.0 4.0 0.00 0.01 0.01 77
20260505234606 54 184 2.0 4.0 0.00 0.01 0.01 77
20260505234506 54 182 1.0 2.0 0.00 0.01 0.01 77
20260505234406 54 184 0.0 2.0 0.00 0.01 0.01 77
20260505234306 54 183 0.0 2.0 0.00 0.01 0.01 78
20260505234206 54 186 0.0 2.0 0.00 0.01 0.01 77
20260505234106 54 184 0.0 2.0 0.00 0.01 0.01 78
20260505234006 54 181 0.0 2.0 0.00 0.01 0.01 78
20260505233906 54 183 1.0 2.0 0.00 0.01 0.01 77
20260505233806 54 192 1.0 2.0 0.00 0.01 0.01 78
20260505233706 54 183 0.0 2.0 0.00 0.01 0.01 79
20260505233606 54 182 0.0 2.0 0.00 0.01 0.01 79
20260505233506 54 182 0.0 2.0 0.00 0.01 0.01 79
20260505233406 54 182 0.0 2.0 0.00 0.01 0.01 79
20260505233306 54 182 1.0 2.0 0.00 0.01 0.01 79
20260505233206 54 181 1.0 2.0 0.00 0.01 0.01 80
20260505233106 54 182 0.0 1.0 0.00 0.01 0.01 81
20260505233006 54 178 0.0 1.0 0.00 0.01 0.01 81
20260505232906 54 176 0.0 1.0 0.00 0.01 0.01 81
20260505232806 54 178 0.0 1.0 0.00 0.01 0.01 81
20260505232706 54 177 0.0 1.0 0.00 0.01 0.01 81
20260505232606 54 178 0.0 1.0 0.00 0.01 0.01 82
20260505232506 54 177 0.0 1.0 0.00 0.01 0.01 82
20260505232406 54 177 0.0 1.0 0.00 0.01 0.01 81
20260505232306 54 177 0.0 1.0 0.00 0.01 0.01 81
20260505232206 54 177 0.0 1.0 0.00 0.01 0.01 81
20260505232106 54 177 0.0 2.0 0.00 0.01 0.01 81
20260505232006 54 179 0.0 2.0 0.00 0.01 0.01 81
20260505231906 54 178 0.0 2.0 0.00 0.01 0.01 81
20260505231806 54 177 0.0 2.0 0.00 0.01 0.01 80
20260505231706 54 176 0.0 2.0 0.00 0.01 0.01 81
20260505231606 54 177 0.0 1.0 0.00 0.01 0.01 81
20260505231506 54 182 0.0 1.0 0.00 0.01 0.01 80
20260505231406 54 182 0.0 1.0 0.00 0.01 0.01 80
20260505231306 54 177 0.0 1.0 0.00 0.01 0.01 80
20260505231206 54 177 0.0 1.0 0.00 0.01 0.01 80
20260505231106 54 177 0.0 1.0 0.00 0.01 0.01 80
20260505231006 54 177 0.0 1.0 0.00 0.01 0.01 80
20260505230906 54 178 0.0 1.0 0.00 0.01 0.01 80
20260505230806 54 177 0.0 1.0 0.00 0.01 0.01 80
20260505230706 54 183 0.0 1.0 0.00 0.01 0.01 80
20260505230606 54 183 0.0 1.0 0.00 0.01 0.01 79
20260505230506 54 177 0.0 1.0 0.00 0.01 0.01 79
20260505230406 54 177 0.0 1.0 0.00 0.01 0.01 79
20260505230306 54 177 0.0 1.0 0.00 0.01 0.01 79
20260505230206 54 177 0.0 1.0 0.00 0.01 0.01 79
20260505230106 54 177 0.0 1.0 0.00 0.01 0.01 79
20260505230006 54 177 0.0 1.0 0.00 0.01 0.01 79
20260505225924 54 182 0.0 1.0 0.00 0.01 0.01 79
20260505225906 54 177 0.0 1.0 0.00 0.01 0.01 80
20260505225806 54 177 0.0 1.0 0.00 0.01 0.01 80
20260505225706 54 182 0.0 1.0 0.00 0.01 0.01 79
20260505225606 54 183 0.0 2.0 0.00 0.01 0.01 79
20260505225506 54 178 0.0 2.0 0.00 0.01 0.01 79
20260505225406 54 178 0.0 2.0 0.00 0.01 0.01 78
20260505225306 54 176 0.0 2.0 0.00 0.01 0.01 78
20260505225206 54 178 0.0 2.0 0.00 0.01 0.01 78
20260505225106 54 181 0.0 1.0 0.00 0.01 0.01 79
20260505225006 54 183 0.0 1.0 0.00 0.01 0.01 79
20260505224906 54 185 0.0 1.0 0.00 0.01 0.01 78
20260505224806 54 184 0.0 1.0 0.00 0.01 0.01 79
20260505224706 54 182 0.0 1.0 0.00 0.01 0.01 79
20260505224606 54 186 0.0 2.0 0.00 0.01 0.01 79
20260505224506 54 183 0.0 2.0 0.00 0.01 0.01 79
20260505224406 54 183 0.0 2.0 0.00 0.01 0.01 79
20260505224306 54 183 0.0 2.0 0.00 0.01 0.01 78
20260505224206 54 183 0.0 2.0 0.00 0.01 0.01 78
20260505224106 54 183 0.0 2.0 0.00 0.01 0.01 79
20260505224006 54 181 0.0 1.0 0.00 0.01 0.01 78
20260505223906 54 181 0.0 1.0 0.00 0.01 0.01 78
20260505223806 54 181 0.0 1.0 0.00 0.01 0.01 78
20260505223706 54 181 0.0 1.0 0.00 0.01 0.01 78
20260505223606 54 181 0.0 1.0 0.00 0.01 0.01 78
20260505223506 54 181 0.0 1.0 0.00 0.01 0.01 78
20260505223406 54 181 0.0 1.0 0.00 0.01 0.01 78
20260505223306 54 181 0.0 1.0 0.00 0.01 0.01 78
20260505223206 54 181 0.0 1.0 0.00 0.01 0.01 78
20260505223106 54 181 0.0 1.0 0.00 0.01 0.01 78
20260505223006 54 181 0.0 1.0 0.00 0.01 0.01 77
20260505222906 54 181 0.0 1.0 0.00 0.01 0.01 77
20260505222806 54 181 0.0 1.0 0.00 0.01 0.01 77
20260505222706 54 181 0.0 1.0 0.00 0.01 0.01 77
20260505222606 54 181 0.0 1.0 0.00 0.01 0.01 77
20260505222506 54 181 0.0 1.0 0.00 0.01 0.01 77
20260505222406 54 181 0.0 1.0 0.00 0.01 0.01 76
20260505222306 54 181 0.0 1.0 0.00 0.01 0.01 76
20260505222206 54 181 0.0 1.0 0.00 0.01 0.01 76
20260505222106 54 181 0.0 1.0 0.00 0.01 0.01 76
20260505222006 54 181 0.0 1.0 0.00 0.01 0.01 76
20260505221906 54 182 0.0 1.0 0.00 0.01 0.01 76
20260505221806 54 181 0.0 1.0 0.00 0.01 0.01 76
20260505221706 54 181 0.0 1.0 0.00 0.01 0.01 76
20260505221606 54 182 0.0 1.0 0.00 0.01 0.01 75
20260505221506 54 182 0.0 1.0 0.00 0.01 0.01 75
20260505221406 54 182 0.0 1.0 0.00 0.01 0.01 75
20260505221306 54 182 0.0 1.0 0.00 0.01 0.01 75
20260505221206 54 181 0.0 1.0 0.00 0.01 0.01 75
20260505221106 54 181 0.0 1.0 0.00 0.01 0.01 75
20260505221006 54 181 0.0 1.0 0.00 0.01 0.01 75
20260505220906 54 181 0.0 1.0 0.00 0.01 0.01 75
20260505220806 54 181 0.0 1.0 0.00 0.01 0.01 76
20260505220706 54 181 0.0 1.0 0.00 0.01 0.01 76
20260505220606 54 181 0.0 1.0 0.00 0.01 0.01 76
20260505220506 54 181 0.0 1.0 0.00 0.01 0.01 76
20260505220406 54 181 0.0 1.0 0.00 0.01 0.01 76
20260505220306 54 181 0.0 1.0 0.00 0.01 0.01 76
20260505220206 54 181 0.0 1.0 0.00 0.01 0.01 77
20260505220106 54 181 0.0 1.0 0.00 0.01 0.01 76
20260505220006 54 181 0.0 1.0 0.00 0.01 0.01 76
20260505215906 54 181 0.0 1.0 0.00 0.01 0.01 76
20260505215806 54 181 0.0 1.0 0.00 0.01 0.01 76
20260505215706 54 181 0.0 1.0 0.00 0.01 0.01 76
20260505215606 54 181 0.0 1.0 0.00 0.01 0.01 76
20260505215506 54 181 0.0 1.0 0.00 0.01 0.01 76
20260505215406 54 181 0.0 1.0 0.00 0.01 0.01 76
20260505215306 55 181 0.0 1.0 0.00 0.01 0.01 76
20260505215206 55 181 0.0 1.0 0.00 0.01 0.01 76
20260505215106 55 181 0.0 1.0 0.00 0.01 0.01 75
20260505215006 55 181 0.0 1.0 0.00 0.01 0.01 76
20260505214906 55 181 0.0 1.0 0.00 0.01 0.01 75
20260505214806 55 181 0.0 1.0 0.00 0.01 0.01 75
20260505214706 55 181 0.0 1.0 0.00 0.01 0.01 75
20260505214606 55 181 0.0 1.0 0.00 0.01 0.01 75
20260505214506 55 181 0.0 1.0 0.00 0.01 0.01 74
20260505214406 55 181 0.0 1.0 0.00 0.01 0.01 74
20260505214306 55 181 0.0 1.0 0.00 0.01 0.01 74
20260505214206 55 181 0.0 1.0 0.00 0.01 0.01 74
20260505214106 55 181 0.0 1.0 0.00 0.01 0.01 74
20260505214006 55 181 0.0 1.0 0.00 0.01 0.01 73
20260505213906 55 181 0.0 1.0 0.00 0.01 0.01 73
20260505213806 55 181 0.0 1.0 0.00 0.01 0.01 73
20260505213706 55 181 0.0 1.0 0.00 0.01 0.01 73
20260505213606 55 181 0.0 1.0 0.00 0.01 0.01 73
20260505213506 55 181 0.0 1.0 0.00 0.01 0.01 73
20260505213406 55 181 0.0 1.0 0.00 0.01 0.01 73
20260505213306 55 181 0.0 1.0 0.00 0.01 0.01 73
20260505213206 55 181 0.0 1.0 0.00 0.01 0.01 73
20260505213106 55 181 0.0 1.0 0.00 0.01 0.01 72
20260505213006 55 181 0.0 1.0 0.00 0.01 0.01 72
20260505212906 55 181 0.0 1.0 0.00 0.01 0.01 72
20260505212806 55 181 0.0 1.0 0.00 0.01 0.01 72
20260505212706 55 181 0.0 1.0 0.00 0.01 0.01 72
20260505212606 55 181 0.0 1.0 0.00 0.01 0.01 72
20260505212506 55 181 0.0 1.0 0.00 0.01 0.01 72
20260505212406 56 181 0.0 1.0 0.00 0.01 0.01 72
20260505212306 55 181 0.0 2.0 0.00 0.01 0.01 72
20260505212206 55 181 0.0 2.0 0.00 0.01 0.01 72
20260505212106 55 182 0.0 2.0 0.00 0.01 0.01 72
20260505212006 55 180 0.0 2.0 0.00 0.01 0.01 72
20260505211906 55 183 0.0 2.0 0.00 0.01 0.01 72
20260505211806 55 183 0.0 2.0 0.00 0.01 0.01 72
20260505211706 55 181 0.0 1.0 0.00 0.01 0.01 72
20260505211606 55 182 0.0 1.0 0.00 0.01 0.01 72
20260505211506 55 183 0.0 1.0 0.00 0.01 0.01 72
20260505211406 55 184 0.0 1.0 0.00 0.01 0.01 72
20260505211306 55 182 0.0 1.0 0.00 0.01 0.01 72
20260505211206 55 183 0.0 1.0 0.00 0.01 0.01 72
20260505211106 55 182 0.0 1.0 0.00 0.01 0.01 72
20260505211006 55 182 0.0 1.0 0.00 0.01 0.01 72
20260505210906 55 181 0.0 1.0 0.00 0.01 0.01 72
20260505210806 55 182 0.0 1.0 0.00 0.01 0.01 72
20260505210706 55 178 0.0 1.0 0.00 0.01 0.01 72
20260505210606 55 178 0.0 1.0 0.00 0.01 0.01 72
20260505210506 55 182 0.0 1.0 0.00 0.01 0.01 72
20260505210406 55 177 0.0 1.0 0.00 0.01 0.01 72
20260505210306 55 177 0.0 1.0 0.00 0.01 0.01 72
20260505210206 55 177 0.0 1.0 0.00 0.01 0.01 72
20260505210106 55 183 0.0 1.0 0.00 0.01 0.01 72
20260505210006 55 186 0.0 1.0 0.00 0.01 0.01 72
20260505205906 55 183 0.0 1.0 0.00 0.01 0.01 72
20260505205806 55 177 0.0 1.0 0.00 0.01 0.01 72
20260505205706 55 183 0.0 1.0 0.00 0.01 0.01 72
20260505205606 55 183 0.0 1.0 0.00 0.01 0.01 72
20260505205506 55 183 0.0 1.0 0.00 0.01 0.01 72
20260505205406 55 182 0.0 1.0 0.00 0.01 0.01 72
20260505205306 55 185 0.0 1.0 0.00 0.01 0.01 73
20260505205206 55 185 0.0 1.0 0.00 0.01 0.01 73
20260505205106 55 174 0.0 1.0 0.00 0.01 0.01 73
20260505205006 55 185 0.0 1.0 0.00 0.01 0.01 73
20260505204906 55 171 0.0 1.0 0.00 0.01 0.01 74
20260505204852 55 184 0.0 1.0 0.00 0.01 0.01 74
20260505204806 55 184 0.0 1.0 0.00 0.01 0.01 74
20260505204706 55 184 0.0 1.0 0.00 0.01 0.01 74
20260505204606 55 184 0.0 1.0 0.00 0.01 0.01 74
20260505204506 55 184 0.0 1.0 0.00 0.01 0.01 74
20260505204406 55 184 0.0 1.0 0.00 0.01 0.01 74
20260505204306 55 187 0.0 1.0 0.00 0.01 0.01 74
20260505204206 55 184 0.0 1.0 0.00 0.01 0.01 73
20260505204106 55 185 0.0 1.0 0.00 0.01 0.01 73
20260505204006 56 184 0.0 1.0 0.00 0.01 0.01 73
20260505203906 56 165 0.0 1.0 0.00 0.01 0.01 73
20260505203806 56 185 0.0 1.0 0.00 0.01 0.01 73
20260505203706 56 185 0.0 1.0 0.00 0.01 0.01 73
20260505203606 56 185 0.0 1.0 0.00 0.01 0.01 73
20260505203506 55 185 0.0 1.0 0.00 0.01 0.01 73
20260505203406 55 185 0.0 1.0 0.00 0.01 0.01 73
20260505203306 55 185 0.0 1.0 0.00 0.01 0.01 73
20260505203206 55 185 0.0 1.0 0.00 0.01 0.01 73
20260505203106 55 185 0.0 1.0 0.00 0.01 0.01 73
20260505203006 55 185 0.0 1.0 0.00 0.01 0.01 72
20260505202906 55 185 0.0 1.0 0.00 0.01 0.01 73
20260505202806 56 185 0.0 1.0 0.00 0.01 0.01 72
20260505202706 55 185 0.0 1.0 0.00 0.01 0.01 72
20260505202606 56 185 0.0 1.0 0.00 0.01 0.01 72
20260505202506 56 185 0.0 1.0 0.00 0.01 0.01 72
20260505202406 56 185 0.0 1.0 0.00 0.01 0.01 71
20260505202307 56 185 0.0 1.0 0.00 0.01 0.01 71
20260505202206 56 185 0.0 1.0 0.00 0.01 0.01 71
20260505202106 56 185 0.0 1.0 0.00 0.01 0.01 71
20260505202006 56 185 0.0 1.0 0.00 0.01 0.01 71
20260505201906 56 185 0.0 1.0 0.00 0.01 0.01 71
20260505201806 56 174 0.0 1.0 0.00 0.01 0.01 71
20260505201706 56 187 0.0 1.0 0.00 0.01 0.01 71
20260505201606 56 185 0.0 1.0 0.00 0.01 0.01 71
20260505201506 56 185 0.0 1.0 0.00 0.01 0.01 71
20260505201406 56 185 0.0 1.0 0.00 0.01 0.01 71
20260505201306 56 185 0.0 1.0 0.00 0.01 0.01 71
20260505201206 56 186 0.0 1.0 0.00 0.01 0.01 71
20260505201106 56 186 0.0 1.0 0.00 0.01 0.01 71
20260505201006 56 185 0.0 1.0 0.00 0.01 0.01 71
20260505200906 56 185 0.0 1.0 0.00 0.01 0.01 71
20260505200806 56 185 0.0 1.0 0.00 0.01 0.01 71
20260505200706 56 185 0.0 1.0 0.00 0.01 0.01 70
20260505200606 56 185 0.0 1.0 0.00 0.01 0.01 71
20260505200506 56 185 0.0 1.0 0.00 0.01 0.01 71
20260505200406 56 185 0.0 1.0 0.00 0.01 0.01 70
20260505200306 56 185 0.0 1.0 0.00 0.01 0.01 70
20260505200206 56 185 0.0 1.0 0.00 0.01 0.01 70
20260505200106 56 175 0.0 1.0 0.00 0.01 0.01 70
20260505200006 56 186 0.0 1.0 0.00 0.01 0.01 70
20260505195906 56 169 0.0 1.0 0.00 0.01 0.01 70
20260505195806 56 175 0.0 2.0 0.00 0.01 0.01 70
20260505195706 56 185 0.0 2.0 0.00 0.01 0.01 70
20260505195606 56 185 0.0 2.0 0.00 0.01 0.01 70
20260505195506 56 185 0.0 2.0 0.00 0.01 0.01 70
20260505195406 56 172 0.0 2.0 0.00 0.01 0.01 71
20260505195344 56 186 0.0 2.0 0.00 0.01 0.01 70
20260505195306 56 186 0.0 2.0 0.00 0.01 0.01 70
20260505195206 56 170 0.0 2.0 0.00 0.01 0.01 71
20260505195106 56 175 0.0 2.0 0.00 0.01 0.01 71
20260505195006 56 172 0.0 2.0 0.00 0.01 0.01 70
20260505194906 56 172 1.0 2.0 0.00 0.01 0.01 70
20260505194806 56 125 0.0 1.0 0.00 0.01 0.01 70
20260505194706 56 123 0.0 1.0 0.00 0.01 0.01 71
20260505194606 56 123 0.0 1.0 0.00 0.01 0.01 71
20260505194506 56 123 0.0 1.0 0.00 0.01 0.01 71
20260505194406 56 123 0.0 1.0 0.00 0.01 0.01 71
20260505194306 56 123 0.0 1.0 0.00 0.01 0.01 71
20260505194206 56 123 0.0 1.0 0.00 0.01 0.01 71
20260505194106 56 123 0.0 1.0 0.00 0.01 0.01 71
20260505194006 56 123 0.0 1.0 0.00 0.01 0.01 71
20260505193906 56 123 0.0 1.0 0.00 0.01 0.01 70
20260505193806 56 123 0.0 1.0 0.00 0.01 0.01 71
20260505193706 56 123 0.0 1.0 0.00 0.01 0.01 70
20260505193606 57 123 0.0 1.0 0.00 0.01 0.01 71
20260505193506 57 123 0.0 1.0 0.00 0.01 0.01 70
20260505193406 57 123 0.0 1.0 0.00 0.01 0.01 70
20260505193306 57 123 0.0 1.0 0.00 0.01 0.01 70
20260505193206 57 123 0.0 1.0 0.00 0.01 0.01 70
20260505193106 57 123 0.0 2.0 0.00 0.01 0.01 70
20260505193006 57 123 0.0 2.0 0.00 0.01 0.01 70
20260505192906 57 128 0.0 4.0 0.00 0.01 0.01 69
20260505192806 57 178 0.0 4.0 0.00 0.01 0.01 69
20260505192706 57 178 0.0 4.0 0.00 0.01 0.01 69
20260505192606 57 178 0.0 4.0 0.00 0.01 0.01 69
20260505192506 57 177 1.0 4.0 0.00 0.01 0.01 69
20260505192406 57 171 1.0 4.0 0.00 0.01 0.01 69
20260505192306 57 184 1.0 4.0 0.00 0.01 0.01 69
20260505192206 57 170 1.0 4.0 0.00 0.01 0.01 69
20260505192106 57 187 1.0 4.0 0.00 0.01 0.01 68
20260505192006 57 185 2.0 4.0 0.00 0.01 0.01 68
20260505191906 57 181 2.0 4.0 0.00 0.01 0.01 68
20260505191806 57 187 2.0 4.0 0.00 0.01 0.01 68
20260505191706 57 187 1.0 4.0 0.00 0.01 0.01 67
20260505191606 57 178 1.0 4.0 0.00 0.01 0.01 67
20260505191506 57 175 1.0 4.0 0.00 0.01 0.01 67
20260505191406 57 187 1.0 4.0 0.00 0.01 0.01 67
20260505191306 57 172 2.0 4.0 0.00 0.01 0.01 67
20260505191206 57 181 1.0 4.0 0.00 0.01 0.01 67
20260505191106 58 186 2.0 4.0 0.00 0.01 0.01 66
20260505191006 58 183 1.0 2.0 0.00 0.01 0.01 66
20260505190906 58 182 1.0 2.0 0.00 0.01 0.01 66
20260505190806 58 175 1.0 2.0 0.00 0.01 0.01 65
20260505190706 58 175 1.0 2.0 0.00 0.01 0.01 65
20260505190606 58 181 1.0 4.0 0.00 0.01 0.01 65
20260505190506 58 184 1.0 4.0 0.00 0.01 0.01 65
20260505190406 58 182 1.0 4.0 0.00 0.01 0.01 65
20260505190306 58 181 1.0 4.0 0.00 0.01 0.01 64
20260505190206 58 187 2.0 4.0 0.00 0.01 0.01 64
20260505190106 58 175 2.0 4.0 0.00 0.01 0.01 63
20260505190006 58 172 2.0 4.0 0.00 0.01 0.01 63
20260505185906 58 175 2.0 4.0 0.00 0.01 0.01 63
20260505185806 58 172 1.0 4.0 0.00 0.01 0.01 63
20260505185706 58 182 1.0 4.0 0.00 0.01 0.01 62
20260505185606 58 175 1.0 4.0 0.00 0.01 0.01 62
20260505185506 58 170 1.0 4.0 0.00 0.01 0.01 62
20260505185406 58 186 2.0 4.0 0.00 0.01 0.01 62
20260505185306 58 178 1.0 4.0 0.00 0.01 0.01 62
20260505185206 58 184 1.0 2.0 0.00 0.01 0.01 62
20260505185106 58 186 1.0 2.0 0.00 0.01 0.01 62
20260505185006 58 169 0.0 2.0 0.00 0.01 0.01 62
20260505184906 58 187 0.0 2.0 0.00 0.01 0.01 62
20260505184806 59 175 1.0 2.0 0.00 0.01 0.01 62
20260505184706 58 188 1.0 4.0 0.00 0.01 0.01 62
20260505184606 59 187 0.0 4.0 0.00 0.01 0.01 62
20260505184506 59 176 0.0 4.0 0.00 0.01 0.01 62
20260505184406 59 187 1.0 5.0 0.00 0.01 0.01 62
20260505184306 59 173 1.0 5.0 0.00 0.01 0.01 62
20260505184206 59 187 2.0 5.0 0.00 0.01 0.01 62
20260505184106 59 169 1.0 5.0 0.00 0.01 0.01 62
20260505184006 59 186 3.0 5.0 0.00 0.01 0.01 62
20260505183906 59 172 3.0 5.0 0.00 0.01 0.01 62
20260505183806 59 175 2.0 5.0 0.00 0.01 0.01 62
20260505183706 59 170 2.0 5.0 0.00 0.01 0.01 62
20260505183606 59 183 2.0 5.0 0.00 0.01 0.01 62
20260505183506 59 178 2.0 5.0 0.00 0.01 0.01 62
20260505183406 59 186 3.0 5.0 0.00 0.01 0.01 62
20260505183306 59 170 3.0 5.0 0.00 0.01 0.01 62
20260505183206 59 174 2.0 5.0 0.00 0.01 0.01 62
20260505183106 59 172 1.0 5.0 0.00 0.01 0.01 62
20260505183006 59 174 1.0 5.0 0.00 0.01 0.01 62
20260505182906 59 182 1.0 5.0 0.00 0.01 0.01 62
20260505182806 60 181 3.0 5.0 0.00 0.01 0.01 62
20260505182706 60 188 2.0 4.0 0.00 0.01 0.01 62
20260505182606 60 189 2.0 4.0 0.00 0.01 0.01 62
20260505182506 60 182 1.0 4.0 0.00 0.01 0.01 62
20260505182406 60 179 1.0 4.0 0.00 0.01 0.01 62
20260505182306 60 174 1.0 4.0 0.00 0.01 0.01 62
20260505182206 60 185 1.0 4.0 0.00 0.01 0.01 62
20260505182106 60 173 2.0 4.0 0.00 0.01 0.01 62
20260505182006 60 175 2.0 4.0 0.00 0.01 0.01 62
20260505181906 60 175 1.0 2.0 0.00 0.01 0.01 62
20260505181806 60 175 1.0 4.0 0.00 0.01 0.01 62
20260505181706 60 189 1.0 4.0 0.00 0.01 0.01 62
20260505181606 60 171 1.0 4.0 0.00 0.01 0.01 62
20260505181506 60 187 1.0 4.0 0.00 0.01 0.01 62
20260505181406 60 183 1.0 5.0 0.00 0.01 0.01 62
20260505181306 60 184 2.0 5.0 0.00 0.01 0.01 62
20260505181206 60 173 2.0 7.0 0.00 0.01 0.01 62
20260505181106 60 183 2.0 7.0 0.00 0.01 0.01 62
20260505181006 60 181 3.0 7.0 0.00 0.01 0.01 62
20260505180906 60 185 2.0 7.0 0.00 0.01 0.01 62
20260505180806 60 175 3.0 7.0 0.00 0.01 0.01 62
20260505180706 60 177 2.0 5.0 0.00 0.01 0.01 62
20260505180606 60 187 2.0 7.0 0.00 0.01 0.01 62
20260505180506 60 174 2.0 7.0 0.00 0.01 0.01 62
20260505180406 60 171 2.0 7.0 0.00 0.01 0.01 62
20260505180306 60 172 2.0 7.0 0.00 0.01 0.01 62
20260505180206 60 176 4.0 7.0 0.00 0.01 0.01 62
20260505180106 60 184 3.0 5.0 0.00 0.01 0.01 62
20260505180006 60 176 3.0 5.0 0.00 0.01 0.01 62
20260505175906 60 184 3.0 5.0 0.00 0.01 0.01 62
20260505175806 60 167 2.0 5.0 0.00 0.01 0.01 62
20260505175706 60 169 2.0 5.0 0.00 0.01 0.01 62
20260505175606 60 184 1.0 4.0 0.00 0.01 0.01 62